Time,TemperatureF,DewpointF,PressureIn,WindDirection,WindDirectionDegrees,WindSpeedMPH,WindSpeedGustMPH,Humidity,HourlyPrecipIn,Conditions,Clouds,dailyrainin,SoftwareType,DateUTC
2013-01-05 00:00:00,32.0,22.3,29.87,NE,45,8.1,8.1,67,0.00,CLR,,0.00,WeatherDisplay:10.37,2013-01-05 05:00:00,
2013-01-05 00:01:00,32.0,22.3,29.87,NNE,22,6.9,6.9,67,0.00,CLR,,0.00,WeatherDisplay:10.37,2013-01-05 05:01:00,
2013-01-05 00:05:00,32.0,22.3,29.87,NNE,22,5.8,5.8,67,0.00,CLR,,0.00,WeatherDisplay:10.37,2013-01-05 05:05:00,
2013-01-05 00:06:00,32.0,22.3,29.87,NW,315,6.4,6.4,67,0.00,CLR,,0.00,WeatherDisplay:10.37,2013-01-05 05:06:00,
2013-01-05 00:10:00,32.2,22.1,29.87,NNW,338,9.2,9.2,66,0.00,CLR,,0.00,WeatherDisplay:10.37,2013-01-05 05:10:00,
2013-01-05 00:11:00,32.2,22.1,29.87,SE,135,5.8,5.8,66,0.00,CLR,,0.00,WeatherDisplay:10.37,2013-01-05 05:11:00,
2013-01-05 00:15:00,32.0,22.3,29.87,NNE,22,5.8,5.8,67,0.00,CLR,,0.00,WeatherDisplay:10.37,2013-01-05 05:15:00,
2013-01-05 00:16:00,32.0,22.3,29.87,NE,45,6.9,6.9,67,0.00,CLR,,0.00,WeatherDisplay:10.37,2013-01-05 05:16:00,
2013-01-05 00:21:00,32.0,22.3,29.87,NNE,22,5.8,5.8,67,0.00,CLR,,0.00,WeatherDisplay:10.37,2013-01-05 05:21:00,
2013-01-05 00:26:00,32.0,22.3,29.87,NNW,338,9.2,9.2,67,0.00,CLR,,0.00,WeatherDisplay:10.37,2013-01-05 05:26:00,
2013-01-05 00:27:00,32.0,22.3,29.87,ENE,68,10.4,10.4,67,0.00,CLR,,0.00,WeatherDisplay:10.37,2013-01-05 05:27:00,
2013-01-05 00:31:00,31.8,22.1,29.87,NNE,22,11.5,11.5,67,0.00,CLR,,0.00,WeatherDisplay:10.37,2013-01-05 05:31:00,
2013-01-05 00:32:00,32.0,21.9,29.87,NNE,22,10.4,10.4,66,0.00,CLR,,0.00,WeatherDisplay:10.37,2013-01-05 05:32:00,
2013-01-05 00:36:00,32.0,21.9,29.87,NNE,22,5.8,5.8,66,0.00,CLR,,0.00,WeatherDisplay:10.37,2013-01-05 05:36:00,
2013-01-05 00:37:00,31.8,21.7,29.87,North,0,9.4,9.4,66,0.00,CLR,,0.00,WeatherDisplay:10.37,2013-01-05 05:37:00,
2013-01-05 00:41:00,31.8,21.7,29.90,NNE,22,8.1,8.1,66,0.00,CLR,,0.00,WeatherDisplay:10.37,2013-01-05 05:41:00,
2013-01-05 00:42:00,31.8,21.7,29.90,NNW,338,9.2,9.2,66,0.00,CLR,,0.00,WeatherDisplay:10.37,2013-01-05 05:42:00,
2013-01-05 00:46:00,31.8,21.7,29.90,NE,45,9.2,9.2,66,0.00,CLR,,0.00,WeatherDisplay:10.37,2013-01-05 05:46:00,
2013-01-05 00:47:00,31.8,21.7,29.90,NNE,22,9.2,9.2,66,0.00,CLR,,0.00,WeatherDisplay:10.37,2013-01-05 05:47:00,
2013-01-05 00:48:00,31.8,21.7,29.90,ENE,68,2.6,2.6,66,0.00,CLR,,0.00,WeatherDisplay:10.37,2013-01-05 05:48:00,
2013-01-05 00:52:00,31.8,22.1,29.90,NNE,22,9.2,9.2,67,0.00,CLR,,0.00,WeatherDisplay:10.37,2013-01-05 05:52:00,
2013-01-05 00:53:00,31.8,21.7,29.90,North,0,11.5,11.5,66,0.00,CLR,,0.00,WeatherDisplay:10.37,2013-01-05 05:53:00,
2013-01-05 00:57:00,31.8,21.7,29.90,NNE,22,5.8,5.8,66,0.00,CLR,,0.00,WeatherDisplay:10.37,2013-01-05 05:57:00,
2013-01-05 00:58:00,31.8,21.7,29.90,NW,315,8.5,8.5,66,0.00,CLR,,0.00,WeatherDisplay:10.37,2013-01-05 05:58:00,
2013-01-05 01:02:00,31.6,21.9,29.90,ENE,68,6.9,6.9,67,0.00,CLR,,0.00,WeatherDisplay:10.37,2013-01-05 06:02:00,
2013-01-05 01:03:00,31.6,21.9,29.90,NE,45,5.4,5.4,67,0.00,CLR,,0.00,WeatherDisplay:10.37,2013-01-05 06:03:00,
2013-01-05 01:04:00,31.6,21.9,29.90,NNW,338,9.2,9.2,67,0.00,CLR,,0.00,WeatherDisplay:10.37,2013-01-05 06:04:00,
2013-01-05 01:10:00,31.3,21.6,29.90,NW,315,5.8,5.8,67,0.00,CLR,,0.00,WeatherDisplay:10.37,2013-01-05 06:10:00,
2013-01-05 01:15:00,31.1,21.4,29.90,WSW,248,8.1,8.1,67,0.00,CLR,,0.00,WeatherDisplay:10.37,2013-01-05 06:15:00,
2013-01-05 01:20:00,31.1,21.4,29.90,NW,315,4.6,4.6,67,0.00,CLR,,0.00,WeatherDisplay:10.37,2013-01-05 06:20:00,
2013-01-05 01:25:00,30.7,21.1,29.90,North,0,5.8,5.8,67,0.00,CLR,,0.00,WeatherDisplay:10.37,2013-01-05 06:25:00,
2013-01-05 01:30:00,30.6,21.2,29.90,ESE,112,4.6,4.6,68,0.00,CLR,,0.00,WeatherDisplay:10.37,2013-01-05 06:30:00,
2013-01-05 01:35:00,30.2,21.2,29.90,East,90,7.4,7.4,69,0.00,CLR,,0.00,WeatherDisplay:10.37,2013-01-05 06:35:00,
2013-01-05 01:36:00,30.2,21.2,29.90,North,0,6.9,6.9,69,0.00,CLR,,0.00,WeatherDisplay:10.37,2013-01-05 06:36:00,
2013-01-05 01:40:00,30.2,21.2,29.90,NNE,22,4.6,4.6,69,0.00,CLR,,0.00,WeatherDisplay:10.37,2013-01-05 06:40:00,
2013-01-05 01:41:00,30.2,21.2,29.90,NNE,22,5.8,5.8,69,0.00,CLR,,0.00,WeatherDisplay:10.37,2013-01-05 06:41:00,
2013-01-05 01:45:00,30.2,21.6,29.90,NNW,338,4.6,4.6,70,0.00,CLR,,0.00,WeatherDisplay:10.37,2013-01-05 06:45:00,
2013-01-05 01:46:00,30.2,21.6,29.90,East,90,3.5,3.5,70,0.00,CLR,,0.00,WeatherDisplay:10.37,2013-01-05 06:46:00,
2013-01-05 01:50:00,30.0,21.4,29.90,ESE,112,8.1,8.1,70,0.00,CLR,,0.00,WeatherDisplay:10.37,2013-01-05 06:50:00,
2013-01-05 01:51:00,30.0,21.4,29.90,ESE,112,9.4,9.4,70,0.00,CLR,,0.00,WeatherDisplay:10.37,2013-01-05 06:51:00,
2013-01-05 01:56:00,29.8,21.2,29.90,NW,315,8.1,8.1,70,0.00,CLR,,0.00,WeatherDisplay:10.37,2013-01-05 06:56:00,
2013-01-05 02:01:00,29.8,21.2,29.93,East,90,5.8,5.8,70,0.00,CLR,,0.00,WeatherDisplay:10.37,2013-01-05 07:01:00,
2013-01-05 02:06:00,29.8,21.6,29.93,WSW,248,8.1,8.1,71,0.00,CLR,,0.00,WeatherDisplay:10.37,2013-01-05 07:06:00,
2013-01-05 02:11:00,29.8,21.6,29.93,West,270,5.8,5.8,71,0.00,CLR,,0.00,WeatherDisplay:10.37,2013-01-05 07:11:00,
2013-01-05 02:16:00,30.0,21.8,29.93,East,90,4.6,4.6,71,0.00,CLR,,0.00,WeatherDisplay:10.37,2013-01-05 07:16:00,
2013-01-05 02:17:00,30.0,21.8,29.93,NNW,338,4.6,4.6,71,0.00,CLR,,0.00,WeatherDisplay:10.37,2013-01-05 07:17:00,
2013-01-05 02:21:00,30.2,21.9,29.93,WNW,292,5.8,5.8,71,0.00,CLR,,0.00,WeatherDisplay:10.37,2013-01-05 07:21:00,
2013-01-05 02:22:00,30.2,22.3,29.93,NW,315,6.0,6.0,72,0.00,CLR,,0.00,WeatherDisplay:10.37,2013-01-05 07:22:00,
2013-01-05 02:26:00,30.2,21.9,29.90,NW,315,6.9,6.9,71,0.00,CLR,,0.00,WeatherDisplay:10.37,2013-01-05 07:26:00,
2013-01-05 02:27:00,30.2,21.9,29.90,West,270,6.9,6.9,71,0.00,CLR,,0.00,WeatherDisplay:10.37,2013-01-05 07:27:00,
2013-01-05 02:31:00,30.2,21.9,29.90,NW,315,2.9,2.9,71,0.00,CLR,,0.00,WeatherDisplay:10.37,2013-01-05 07:31:00,
2013-01-05 02:32:00,30.2,21.9,29.90,NNW,338,4.9,4.9,71,0.00,CLR,,0.00,WeatherDisplay:10.37,2013-01-05 07:32:00,
2013-01-05 02:37:00,30.4,22.1,29.90,ESE,112,3.5,3.5,71,0.00,CLR,,0.00,WeatherDisplay:10.37,2013-01-05 07:37:00,
2013-01-05 02:42:00,30.4,22.1,29.90,WNW,292,4.6,4.6,71,0.00,CLR,,0.00,WeatherDisplay:10.37,2013-01-05 07:42:00,
2013-01-05 02:43:00,30.4,22.1,29.90,NNE,22,6.9,6.9,71,0.00,CLR,,0.00,WeatherDisplay:10.37,2013-01-05 07:43:00,
2013-01-05 02:47:00,30.4,22.1,29.90,NNW,338,5.8,5.8,71,0.00,CLR,,0.00,WeatherDisplay:10.37,2013-01-05 07:47:00,
2013-01-05 02:48:00,30.6,22.3,29.90,NE,45,6.0,6.0,71,0.00,CLR,,0.00,WeatherDisplay:10.37,2013-01-05 07:48:00,
2013-01-05 02:52:00,30.6,22.3,29.90,NNW,338,5.8,5.8,71,0.00,CLR,,0.00,WeatherDisplay:10.37,2013-01-05 07:52:00,
2013-01-05 02:53:00,30.6,22.3,29.90,NNW,338,9.2,9.2,71,0.00,CLR,,0.00,WeatherDisplay:10.37,2013-01-05 07:53:00,
2013-01-05 02:57:00,30.7,22.1,29.93,North,0,8.1,8.1,70,0.00,CLR,,0.00,WeatherDisplay:10.37,2013-01-05 07:57:00,
2013-01-05 02:58:00,30.7,22.1,29.93,NNW,338,8.1,8.1,70,0.00,CLR,,0.00,WeatherDisplay:10.37,2013-01-05 07:58:00,
2013-01-05 03:02:00,30.7,22.1,29.93,NNE,22,4.6,4.6,70,0.00,CLR,,0.00,WeatherDisplay:10.37,2013-01-05 08:02:00,
2013-01-05 03:03:00,30.7,22.1,29.93,NNE,22,5.9,5.9,70,0.00,CLR,,0.00,WeatherDisplay:10.37,2013-01-05 08:03:00,
2013-01-05 03:04:00,30.7,22.1,29.93,North,0,5.8,5.8,70,0.00,CLR,,0.00,WeatherDisplay:10.37,2013-01-05 08:04:00,
2013-01-05 03:07:00,30.7,22.1,29.93,NW,315,8.1,8.1,70,0.00,CLR,,0.00,WeatherDisplay:10.37,2013-01-05 08:07:00,
2013-01-05 03:08:00,30.7,22.1,29.93,NNW,338,6.9,6.9,70,0.00,CLR,,0.00,WeatherDisplay:10.37,2013-01-05 08:08:00,
2013-01-05 03:09:00,30.7,22.1,29.93,ENE,68,4.6,4.6,70,0.00,CLR,,0.00,WeatherDisplay:10.37,2013-01-05 08:09:00,
2013-01-05 03:12:00,30.7,22.1,29.93,NNW,338,5.8,5.8,70,0.00,CLR,,0.00,WeatherDisplay:10.37,2013-01-05 08:12:00,
2013-01-05 03:13:00,30.7,22.1,29.93,WNW,292,5.8,5.8,70,0.00,CLR,,0.00,WeatherDisplay:10.37,2013-01-05 08:13:00,
2013-01-05 03:14:00,30.7,22.1,29.93,WSW,248,5.8,5.8,70,0.00,CLR,,0.00,WeatherDisplay:10.37,2013-01-05 08:14:00,
2013-01-05 03:17:00,30.7,22.1,29.93,WNW,292,3.3,3.3,70,0.00,CLR,,0.00,WeatherDisplay:10.37,2013-01-05 08:17:00,
2013-01-05 03:18:00,30.7,22.1,29.93,WNW,292,4.6,4.6,70,0.00,CLR,,0.00,WeatherDisplay:10.37,2013-01-05 08:18:00,
2013-01-05 03:19:00,30.7,22.1,29.93,NNE,22,4.0,4.0,70,0.00,CLR,,0.00,WeatherDisplay:10.37,2013-01-05 08:19:00,
2013-01-05 03:23:00,30.7,22.1,29.93,East,90,4.6,4.6,70,0.00,CLR,,0.00,WeatherDisplay:10.37,2013-01-05 08:23:00,
2013-01-05 03:24:00,30.7,22.1,29.93,NNE,22,4.6,4.6,70,0.00,CLR,,0.00,WeatherDisplay:10.37,2013-01-05 08:24:00,
2013-01-05 03:28:00,30.9,22.3,29.93,NNW,338,5.8,5.8,70,0.00,CLR,,0.00,WeatherDisplay:10.37,2013-01-05 08:28:00,
2013-01-05 03:29:00,30.9,22.3,29.93,NNW,338,7.1,7.1,70,0.00,CLR,,0.00,WeatherDisplay:10.37,2013-01-05 08:29:00,
2013-01-05 03:30:00,30.9,22.3,29.93,NW,315,6.9,6.9,70,0.00,CLR,,0.00,WeatherDisplay:10.37,2013-01-05 08:30:00,
2013-01-05 03:33:00,30.9,22.3,29.93,ENE,68,3.5,3.5,70,0.00,CLR,,0.00,WeatherDisplay:10.37,2013-01-05 08:33:00,
2013-01-05 03:34:00,30.9,22.3,29.93,NNE,22,4.6,4.6,70,0.00,CLR,,0.00,WeatherDisplay:10.37,2013-01-05 08:34:00,
2013-01-05 03:35:00,31.1,22.5,29.93,ESE,112,5.8,5.8,70,0.00,CLR,,0.00,WeatherDisplay:10.37,2013-01-05 08:35:00,
2013-01-05 03:38:00,31.1,22.5,29.93,West,270,6.2,6.2,70,0.00,CLR,,0.00,WeatherDisplay:10.37,2013-01-05 08:38:00,
2013-01-05 03:39:00,31.1,22.5,29.93,NE,45,5.8,5.8,70,0.00,CLR,,0.00,WeatherDisplay:10.37,2013-01-05 08:39:00,
2013-01-05 03:41:00,31.1,22.5,29.93,NE,45,5.8,5.8,70,0.00,CLR,,0.00,WeatherDisplay:10.37,2013-01-05 08:41:00,
2013-01-05 03:43:00,31.1,22.5,29.95,North,0,4.9,4.9,70,0.00,CLR,,0.00,WeatherDisplay:10.37,2013-01-05 08:43:00,
2013-01-05 03:44:00,31.1,22.5,29.95,SSE,158,5.8,5.8,70,0.00,CLR,,0.00,WeatherDisplay:10.37,2013-01-05 08:44:00,
2013-01-05 03:46:00,31.1,22.5,29.95,NNE,22,8.1,8.1,70,0.00,CLR,,0.00,WeatherDisplay:10.37,2013-01-05 08:46:00,
2013-01-05 03:49:00,31.1,22.5,29.95,NNW,338,5.8,5.8,70,0.00,CLR,,0.00,WeatherDisplay:10.37,2013-01-05 08:49:00,
2013-01-05 03:51:00,31.1,22.5,29.95,NNW,338,5.8,5.8,70,0.00,CLR,,0.00,WeatherDisplay:10.37,2013-01-05 08:51:00,
2013-01-05 03:54:00,31.1,22.1,29.95,NW,315,6.4,6.4,69,0.00,CLR,,0.00,WeatherDisplay:10.37,2013-01-05 08:54:00,
2013-01-05 03:56:00,31.1,22.1,29.95,NNW,338,6.9,6.9,69,0.00,CLR,,0.00,WeatherDisplay:10.37,2013-01-05 08:56:00,
2013-01-05 03:59:00,31.1,22.1,29.95,NNE,22,3.3,3.3,69,0.00,CLR,,0.00,WeatherDisplay:10.37,2013-01-05 08:59:00,
2013-01-05 04:00:00,31.1,22.1,29.95,WSW,248,5.4,5.4,69,0.00,CLR,,0.00,WeatherDisplay:10.37,2013-01-05 09:00:00,
2013-01-05 04:01:00,31.1,22.5,29.95,ESE,112,2.3,2.3,70,0.00,CLR,,0.00,WeatherDisplay:10.37,2013-01-05 09:01:00,
2013-01-05 04:04:00,31.1,22.5,29.95,WSW,248,3.5,3.5,70,0.00,CLR,,0.00,WeatherDisplay:10.37,2013-01-05 09:04:00,
2013-01-05 04:05:00,31.1,22.5,29.95,NNW,338,7.6,7.6,70,0.00,CLR,,0.00,WeatherDisplay:10.37,2013-01-05 09:05:00,
2013-01-05 04:06:00,31.1,22.1,29.95,NW,315,8.1,8.1,69,0.00,CLR,,0.00,WeatherDisplay:10.37,2013-01-05 09:06:00,
2013-01-05 04:09:00,31.1,22.5,29.95,ESE,112,6.9,6.9,70,0.00,CLR,,0.00,WeatherDisplay:10.37,2013-01-05 09:09:00,
2013-01-05 04:10:00,31.1,22.5,29.95,NNE,22,5.8,5.9,70,0.00,CLR,,0.00,WeatherDisplay:10.37,2013-01-05 09:10:00,
2013-01-05 04:12:00,31.1,22.5,29.99,West,270,5.8,5.8,70,0.00,CLR,,0.00,WeatherDisplay:10.37,2013-01-05 09:12:00,
2013-01-05 04:15:00,31.1,22.5,29.99,NW,315,2.3,2.3,70,0.00,CLR,,0.00,WeatherDisplay:10.37,2013-01-05 09:15:00,
2013-01-05 04:17:00,31.1,22.5,29.99,NW,315,6.0,6.0,70,0.00,CLR,,0.00,WeatherDisplay:10.37,2013-01-05 09:17:00,
2013-01-05 04:20:00,31.3,22.6,29.99,NNW,338,6.9,6.9,70,0.00,CLR,,0.00,WeatherDisplay:10.37,2013-01-05 09:20:00,
2013-01-05 04:22:00,31.3,22.3,29.99,West,270,6.9,6.9,69,0.00,CLR,,0.00,WeatherDisplay:10.37,2013-01-05 09:22:00,
2013-01-05 04:25:00,31.3,22.3,29.99,ESE,112,8.1,8.1,69,0.00,CLR,,0.00,WeatherDisplay:10.37,2013-01-05 09:25:00,
2013-01-05 04:27:00,31.3,22.3,29.95,NNW,338,4.6,4.6,69,0.00,CLR,,0.00,WeatherDisplay:10.37,2013-01-05 09:27:00,
2013-01-05 04:30:00,31.3,22.3,29.95,ENE,68,5.8,5.8,69,0.00,CLR,,0.00,WeatherDisplay:10.37,2013-01-05 09:30:00,
2013-01-05 04:32:00,31.3,22.3,29.95,East,90,8.1,8.1,69,0.00,CLR,,0.00,WeatherDisplay:10.37,2013-01-05 09:32:00,
2013-01-05 04:35:00,31.3,22.3,29.95,NNE,22,6.9,6.9,69,0.00,CLR,,0.00,WeatherDisplay:10.37,2013-01-05 09:35:00,
2013-01-05 04:37:00,31.3,22.3,29.95,NNE,22,6.9,6.9,69,0.00,CLR,,0.00,WeatherDisplay:10.37,2013-01-05 09:37:00,
2013-01-05 04:40:00,31.3,22.3,29.95,WSW,248,4.0,4.0,69,0.00,CLR,,0.00,WeatherDisplay:10.37,2013-01-05 09:40:00,
2013-01-05 04:41:00,31.3,22.3,29.95,ENE,68,4.6,4.6,69,0.00,CLR,,0.00,WeatherDisplay:10.37,2013-01-05 09:41:00,
2013-01-05 04:43:00,31.1,22.5,29.95,ESE,112,3.5,3.5,70,0.00,CLR,,0.00,WeatherDisplay:10.37,2013-01-05 09:43:00,
2013-01-05 04:45:00,31.3,22.3,29.95,ESE,112,5.8,5.8,69,0.00,CLR,,0.00,WeatherDisplay:10.37,2013-01-05 09:45:00,
2013-01-05 04:46:00,31.3,22.6,29.95,North,0,5.6,5.6,70,0.00,CLR,,0.00,WeatherDisplay:10.37,2013-01-05 09:46:00,
2013-01-05 04:48:00,31.3,22.3,29.95,North,0,8.1,8.1,69,0.00,CLR,,0.00,WeatherDisplay:10.37,2013-01-05 09:48:00,
2013-01-05 04:50:00,31.3,22.3,29.95,SSE,158,4.6,4.6,69,0.00,CLR,,0.00,WeatherDisplay:10.37,2013-01-05 09:50:00,
2013-01-05 04:51:00,31.3,22.6,29.95,NNE,22,4.6,4.6,70,0.00,CLR,,0.00,WeatherDisplay:10.37,2013-01-05 09:51:00,
2013-01-05 04:53:00,31.3,22.3,29.95,NNE,22,8.1,8.1,69,0.00,CLR,,0.00,WeatherDisplay:10.37,2013-01-05 09:53:00,
2013-01-05 04:56:00,31.3,22.6,29.95,NE,45,5.8,5.8,70,0.00,CLR,,0.00,WeatherDisplay:10.37,2013-01-05 09:56:00,
2013-01-05 04:59:00,31.3,22.3,29.99,WSW,248,12.7,12.7,69,0.00,CLR,,0.00,WeatherDisplay:10.37,2013-01-05 09:59:00,
2013-01-05 05:06:00,31.3,22.3,29.99,ESE,112,5.8,5.8,69,0.00,CLR,,0.00,WeatherDisplay:10.37,2013-01-05 10:06:00,
2013-01-05 05:11:00,31.3,22.6,29.99,NE,45,4.6,4.6,70,0.00,CLR,,0.00,WeatherDisplay:10.37,2013-01-05 10:11:00,
2013-01-05 05:16:00,31.1,22.5,29.99,NNE,22,5.8,5.8,70,0.00,CLR,,0.00,WeatherDisplay:10.37,2013-01-05 10:16:00,
2013-01-05 05:21:00,31.3,22.6,29.99,WSW,248,3.5,3.5,70,0.00,CLR,,0.00,WeatherDisplay:10.37,2013-01-05 10:21:00,
2013-01-05 05:26:00,31.3,22.6,29.99,SW,225,4.6,4.6,70,0.00,CLR,,0.00,WeatherDisplay:10.37,2013-01-05 10:26:00,
2013-01-05 05:27:00,31.3,22.6,29.99,WNW,292,4.6,4.6,70,0.00,CLR,,0.00,WeatherDisplay:10.37,2013-01-05 10:27:00,
2013-01-05 05:31:00,31.3,22.6,29.99,WNW,292,3.6,3.6,70,0.00,CLR,,0.00,WeatherDisplay:10.37,2013-01-05 10:31:00,
2013-01-05 05:32:00,31.3,22.6,29.99,ENE,68,3.5,3.5,70,0.00,CLR,,0.00,WeatherDisplay:10.37,2013-01-05 10:32:00,
2013-01-05 05:36:00,31.3,22.6,29.99,WNW,292,4.6,4.6,70,0.00,CLR,,0.00,WeatherDisplay:10.37,2013-01-05 10:36:00,
2013-01-05 05:37:00,31.3,22.6,29.99,ESE,112,6.2,6.2,70,0.00,CLR,,0.00,WeatherDisplay:10.37,2013-01-05 10:37:00,
2013-01-05 05:41:00,31.3,22.6,29.99,NE,45,4.6,4.6,70,0.00,CLR,,0.00,WeatherDisplay:10.37,2013-01-05 10:41:00,
2013-01-05 05:42:00,31.3,22.6,29.99,NNW,338,3.6,3.8,70,0.00,CLR,,0.00,WeatherDisplay:10.37,2013-01-05 10:42:00,
2013-01-05 05:47:00,31.5,22.8,29.99,NNE,22,4.6,4.6,70,0.00,CLR,,0.00,WeatherDisplay:10.37,2013-01-05 10:47:00,
2013-01-05 05:48:00,31.5,22.8,29.99,NNW,338,5.8,5.8,70,0.00,CLR,,0.00,WeatherDisplay:10.37,2013-01-05 10:48:00,
2013-01-05 05:52:00,31.5,22.8,29.99,West,270,5.8,5.8,70,0.00,CLR,,0.00,WeatherDisplay:10.37,2013-01-05 10:52:00,
2013-01-05 05:53:00,31.5,22.8,29.99,WNW,292,3.5,3.5,70,0.00,CLR,,0.00,WeatherDisplay:10.37,2013-01-05 10:53:00,
2013-01-05 05:57:00,31.5,22.8,30.01,NNW,338,4.6,4.6,70,0.00,CLR,,0.00,WeatherDisplay:10.37,2013-01-05 10:57:00,
2013-01-05 05:58:00,31.5,22.8,30.01,NNE,22,5.9,5.9,70,0.00,CLR,,0.00,WeatherDisplay:10.37,2013-01-05 10:58:00,
2013-01-05 06:02:00,31.5,22.8,30.01,East,90,4.6,4.6,70,0.00,CLR,,0.00,WeatherDisplay:10.37,2013-01-05 11:02:00,
2013-01-05 06:03:00,31.5,22.8,30.01,NW,315,5.6,5.6,70,0.00,CLR,,0.00,WeatherDisplay:10.37,2013-01-05 11:03:00,
2013-01-05 06:07:00,31.6,23.0,30.01,South,180,3.8,3.8,70,0.00,CLR,,0.00,WeatherDisplay:10.37,2013-01-05 11:07:00,
2013-01-05 06:08:00,31.6,23.0,30.01,NNE,22,3.5,3.5,70,0.00,CLR,,0.00,WeatherDisplay:10.37,2013-01-05 11:08:00,
2013-01-05 06:12:00,31.6,23.0,30.01,NNE,22,5.8,5.8,70,0.00,CLR,,0.00,WeatherDisplay:10.37,2013-01-05 11:12:00,
2013-01-05 06:13:00,31.6,23.0,30.01,NNW,338,3.5,3.5,70,0.00,CLR,,0.00,WeatherDisplay:10.37,2013-01-05 11:13:00,
2013-01-05 06:14:00,31.6,23.0,30.01,SSE,158,5.6,5.6,70,0.00,CLR,,0.00,WeatherDisplay:10.37,2013-01-05 11:14:00,
2013-01-05 06:17:00,31.6,23.0,30.01,ESE,112,4.6,4.6,70,0.00,CLR,,0.00,WeatherDisplay:10.37,2013-01-05 11:17:00,
2013-01-05 06:18:00,31.6,23.0,30.01,NNW,338,3.5,3.5,70,0.00,CLR,,0.00,WeatherDisplay:10.37,2013-01-05 11:18:00,
2013-01-05 06:19:00,31.5,22.8,30.01,North,0,3.5,3.5,70,0.00,CLR,,0.00,WeatherDisplay:10.37,2013-01-05 11:19:00,
2013-01-05 06:22:00,31.6,23.0,30.01,WNW,292,5.6,5.6,70,0.00,CLR,,0.00,WeatherDisplay:10.37,2013-01-05 11:22:00,
2013-01-05 06:23:00,31.6,23.3,30.01,North,0,5.8,5.8,71,0.00,CLR,,0.00,WeatherDisplay:10.37,2013-01-05 11:23:00,
2013-01-05 06:24:00,31.6,23.3,30.01,NNW,338,5.8,5.8,71,0.00,CLR,,0.00,WeatherDisplay:10.37,2013-01-05 11:24:00,
2013-01-05 06:27:00,31.6,23.3,30.04,NNW,338,4.6,4.6,71,0.00,CLR,,0.00,WeatherDisplay:10.37,2013-01-05 11:27:00,
2013-01-05 06:28:00,31.6,23.3,30.04,NNE,22,2.3,2.3,71,0.00,CLR,,0.00,WeatherDisplay:10.37,2013-01-05 11:28:00,
2013-01-05 06:29:00,31.6,23.3,30.04,West,270,2.3,2.3,71,0.00,CLR,,0.00,WeatherDisplay:10.37,2013-01-05 11:29:00,
2013-01-05 06:32:00,31.5,23.1,30.04,NE,45,4.6,4.6,71,0.00,CLR,,0.00,WeatherDisplay:10.37,2013-01-05 11:32:00,
2013-01-05 06:33:00,31.5,23.1,30.04,North,0,5.8,5.8,71,0.00,CLR,,0.00,WeatherDisplay:10.37,2013-01-05 11:33:00,
2013-01-05 06:34:00,31.6,23.3,30.04,NNE,22,9.2,9.2,71,0.00,CLR,,0.00,WeatherDisplay:10.37,2013-01-05 11:34:00,
2013-01-05 06:37:00,31.6,23.3,30.04,NNW,338,4.6,4.6,71,0.00,CLR,,0.00,WeatherDisplay:10.37,2013-01-05 11:37:00,
2013-01-05 06:38:00,31.6,23.3,30.04,NNW,338,4.6,4.6,71,0.00,CLR,,0.00,WeatherDisplay:10.37,2013-01-05 11:38:00,
2013-01-05 06:39:00,31.6,23.3,30.04,ENE,68,3.5,3.5,71,0.00,CLR,,0.00,WeatherDisplay:10.37,2013-01-05 11:39:00,
2013-01-05 06:42:00,31.6,23.3,30.04,East,90,3.6,3.6,71,0.00,CLR,,0.00,WeatherDisplay:10.37,2013-01-05 11:42:00,
2013-01-05 06:43:00,31.6,23.3,30.04,NNE,22,4.9,4.9,71,0.00,CLR,,0.00,WeatherDisplay:10.37,2013-01-05 11:43:00,
2013-01-05 06:44:00,31.6,23.3,30.04,NW,315,5.8,5.8,71,0.00,CLR,,0.00,WeatherDisplay:10.37,2013-01-05 11:44:00,
2013-01-05 06:47:00,31.6,23.3,30.04,NW,315,3.5,3.5,71,0.00,CLR,,0.00,WeatherDisplay:10.37,2013-01-05 11:47:00,
2013-01-05 06:48:00,31.6,23.3,30.04,WNW,292,3.5,3.5,71,0.00,CLR,,0.00,WeatherDisplay:10.37,2013-01-05 11:48:00,
2013-01-05 06:49:00,31.6,23.3,30.04,North,0,2.3,2.3,71,0.00,CLR,,0.00,WeatherDisplay:10.37,2013-01-05 11:49:00,
2013-01-05 06:52:00,31.5,23.1,30.04,NNE,22,2.3,2.6,71,0.00,CLR,,0.00,WeatherDisplay:10.37,2013-01-05 11:52:00,
2013-01-05 06:53:00,31.5,23.1,30.04,NNW,338,3.5,3.5,71,0.00,CLR,,0.00,WeatherDisplay:10.37,2013-01-05 11:53:00,
2013-01-05 06:54:00,31.5,23.1,30.04,West,270,2.0,2.0,71,0.00,CLR,,0.00,WeatherDisplay:10.37,2013-01-05 11:54:00,
2013-01-05 06:57:00,31.6,23.6,30.04,East,90,4.6,4.6,72,0.00,CLR,,0.00,WeatherDisplay:10.37,2013-01-05 11:57:00,
2013-01-05 06:58:00,31.6,23.6,30.04,East,90,3.5,3.5,72,0.00,CLR,,0.00,WeatherDisplay:10.37,2013-01-05 11:58:00,
2013-01-05 06:59:00,31.6,23.6,30.04,WSW,248,3.5,3.5,72,0.00,CLR,,0.00,WeatherDisplay:10.37,2013-01-05 11:59:00,
2013-01-05 07:00:00,31.6,23.6,30.04,WNW,292,6.7,6.7,72,0.00,CLR,,0.00,WeatherDisplay:10.37,2013-01-05 12:00:00,
2013-01-05 07:03:00,31.6,23.6,30.04,ENE,68,3.5,3.5,72,0.00,CLR,,0.00,WeatherDisplay:10.37,2013-01-05 12:03:00,
2013-01-05 07:04:00,31.6,23.6,30.04,NNW,338,4.6,4.6,72,0.00,CLR,,0.00,WeatherDisplay:10.37,2013-01-05 12:04:00,
2013-01-05 07:05:00,31.6,23.6,30.04,East,90,4.6,4.6,72,0.00,CLR,,0.00,WeatherDisplay:10.37,2013-01-05 12:05:00,
2013-01-05 07:08:00,31.6,23.6,30.04,East,90,4.6,4.6,72,0.00,CLR,,0.00,WeatherDisplay:10.37,2013-01-05 12:08:00,
2013-01-05 07:09:00,31.6,23.6,30.04,NNW,338,3.5,3.5,72,0.00,CLR,,0.00,WeatherDisplay:10.37,2013-01-05 12:09:00,
2013-01-05 07:10:00,31.5,23.5,30.04,ENE,68,3.5,0.0,72,0.00,CLR,,0.00,WeatherDisplay:10.37,2013-01-05 12:10:00,
2013-01-05 07:13:00,31.5,23.5,30.04,WNW,292,2.3,2.3,72,0.00,CLR,,0.00,WeatherDisplay:10.37,2013-01-05 12:13:00,
2013-01-05 07:14:00,31.6,23.6,30.04,NNW,338,4.6,4.6,72,0.00,CLR,,0.00,WeatherDisplay:10.37,2013-01-05 12:14:00,
2013-01-05 07:15:00,31.5,23.5,30.04,SE,135,4.6,4.6,72,0.00,CLR,,0.00,WeatherDisplay:10.37,2013-01-05 12:15:00,
2013-01-05 07:18:00,31.5,23.5,30.04,NNE,22,3.5,3.5,72,0.00,CLR,,0.00,WeatherDisplay:10.37,2013-01-05 12:18:00,
2013-01-05 07:19:00,31.5,23.5,30.04,ENE,68,1.1,0.0,72,0.00,CLR,,0.00,WeatherDisplay:10.37,2013-01-05 12:19:00,
2013-01-05 07:20:00,31.5,23.5,30.04,West,270,5.4,0.0,72,0.00,CLR,,0.00,WeatherDisplay:10.37,2013-01-05 12:20:00,
2013-01-05 07:23:00,31.6,23.6,30.04,ESE,112,4.6,4.6,72,0.00,CLR,,0.00,WeatherDisplay:10.37,2013-01-05 12:23:00,
2013-01-05 07:24:00,31.6,23.6,30.04,WNW,292,3.5,3.5,72,0.00,CLR,,0.00,WeatherDisplay:10.37,2013-01-05 12:24:00,
2013-01-05 07:25:00,31.6,23.6,30.04,North,0,3.5,3.5,72,0.00,CLR,,0.00,WeatherDisplay:10.37,2013-01-05 12:25:00,
2013-01-05 07:26:00,31.6,23.6,30.04,ENE,68,3.5,3.5,72,0.00,CLR,,0.00,WeatherDisplay:10.37,2013-01-05 12:26:00,
2013-01-05 07:28:00,31.6,23.6,30.07,North,0,4.6,4.6,72,0.00,CLR,,0.00,WeatherDisplay:10.37,2013-01-05 12:28:00,
2013-01-05 07:29:00,31.6,23.6,30.07,ENE,68,4.6,4.6,72,0.00,CLR,,0.00,WeatherDisplay:10.37,2013-01-05 12:29:00,
2013-01-05 07:30:00,31.6,23.6,30.07,NNW,338,3.5,3.5,72,0.00,CLR,,0.00,WeatherDisplay:10.37,2013-01-05 12:30:00,
2013-01-05 07:31:00,31.6,23.6,30.07,NNE,22,4.7,4.7,72,0.00,CLR,,0.00,WeatherDisplay:10.37,2013-01-05 12:31:00,
2013-01-05 07:33:00,31.6,23.6,30.07,NNW,338,3.5,3.5,72,0.00,CLR,,0.00,WeatherDisplay:10.37,2013-01-05 12:33:00,
2013-01-05 07:34:00,31.6,23.6,30.07,NW,315,8.5,8.5,72,0.00,CLR,,0.00,WeatherDisplay:10.37,2013-01-05 12:34:00,
2013-01-05 07:35:00,31.6,23.6,30.07,ENE,68,8.1,8.1,72,0.00,CLR,,0.00,WeatherDisplay:10.37,2013-01-05 12:35:00,
2013-01-05 07:36:00,31.6,23.6,30.07,WNW,292,6.4,6.4,72,0.00,CLR,,0.00,WeatherDisplay:10.37,2013-01-05 12:36:00,
2013-01-05 07:38:00,31.6,23.6,30.07,East,90,3.5,3.5,72,0.00,CLR,,0.00,WeatherDisplay:10.37,2013-01-05 12:38:00,
2013-01-05 07:39:00,31.6,23.6,30.07,ESE,112,3.5,3.5,72,0.00,CLR,,0.00,WeatherDisplay:10.37,2013-01-05 12:39:00,
2013-01-05 07:40:00,31.6,23.6,30.07,NNE,22,2.4,2.4,72,0.00,CLR,,0.00,WeatherDisplay:10.37,2013-01-05 12:40:00,
2013-01-05 07:41:00,31.6,23.6,30.07,NNW,338,3.5,3.5,72,0.00,CLR,,0.00,WeatherDisplay:10.37,2013-01-05 12:41:00,
2013-01-05 07:43:00,31.6,23.6,30.07,NNE,22,2.0,2.4,72,0.00,CLR,,0.00,WeatherDisplay:10.37,2013-01-05 12:43:00,
2013-01-05 07:44:00,31.6,23.6,30.07,NNE,22,3.5,3.5,72,0.00,CLR,,0.00,WeatherDisplay:10.37,2013-01-05 12:44:00,
2013-01-05 07:45:00,31.6,23.6,30.07,WSW,248,3.5,3.5,72,0.00,CLR,,0.00,WeatherDisplay:10.37,2013-01-05 12:45:00,
2013-01-05 07:46:00,31.6,23.6,30.07,North,0,3.5,3.5,72,0.00,CLR,,0.00,WeatherDisplay:10.37,2013-01-05 12:46:00,
2013-01-05 07:49:00,31.6,23.6,30.07,NW,315,3.5,3.5,72,0.00,CLR,,0.00,WeatherDisplay:10.37,2013-01-05 12:49:00,
2013-01-05 07:50:00,31.6,23.6,30.07,NNE,22,2.3,2.3,72,0.00,CLR,,0.00,WeatherDisplay:10.37,2013-01-05 12:50:00,
2013-01-05 07:51:00,31.8,23.8,30.07,East,90,3.5,3.5,72,0.00,CLR,,0.00,WeatherDisplay:10.37,2013-01-05 12:51:00,
2013-01-05 07:52:00,31.6,23.6,30.07,NE,45,1.1,0.0,72,0.00,CLR,,0.00,WeatherDisplay:10.37,2013-01-05 12:52:00,
2013-01-05 07:54:00,31.6,23.6,30.07,NNE,22,0.0,0.0,72,0.00,CLR,,0.00,WeatherDisplay:10.37,2013-01-05 12:54:00,
2013-01-05 07:55:00,31.6,23.6,30.07,ENE,68,4.6,4.6,72,0.00,CLR,,0.00,WeatherDisplay:10.37,2013-01-05 12:55:00,
2013-01-05 07:56:00,31.8,23.8,30.07,East,90,4.6,4.6,72,0.00,CLR,,0.00,WeatherDisplay:10.37,2013-01-05 12:56:00,
2013-01-05 07:57:00,31.8,23.8,30.07,NNE,22,4.6,4.6,72,0.00,CLR,,0.00,WeatherDisplay:10.37,2013-01-05 12:57:00,
2013-01-05 07:59:00,31.8,23.8,30.07,ENE,68,5.8,5.8,72,0.00,CLR,,0.00,WeatherDisplay:10.37,2013-01-05 12:59:00,
2013-01-05 08:00:00,31.8,23.8,30.07,ENE,68,3.5,3.5,72,0.00,CLR,,0.00,WeatherDisplay:10.37,2013-01-05 13:00:00,
2013-01-05 08:01:00,31.8,23.8,30.07,NNW,338,7.1,7.1,72,0.00,CLR,,0.00,WeatherDisplay:10.37,2013-01-05 13:01:00,
2013-01-05 08:02:00,31.8,23.8,30.07,ENE,68,6.9,6.9,72,0.00,CLR,,0.00,WeatherDisplay:10.37,2013-01-05 13:02:00,
2013-01-05 08:04:00,31.8,23.8,30.07,NE,45,5.8,5.8,72,0.00,CLR,,0.00,WeatherDisplay:10.37,2013-01-05 13:04:00,
2013-01-05 08:06:00,31.8,23.8,30.07,North,0,4.6,4.6,72,0.00,CLR,,0.00,WeatherDisplay:10.37,2013-01-05 13:06:00,
2013-01-05 08:07:00,31.8,23.8,30.07,ESE,112,4.6,4.6,72,0.00,CLR,,0.00,WeatherDisplay:10.37,2013-01-05 13:07:00,
2013-01-05 08:09:00,32.0,24.0,30.07,ENE,68,5.8,5.8,72,0.00,CLR,,0.00,WeatherDisplay:10.37,2013-01-05 13:09:00,
2013-01-05 08:11:00,31.8,23.8,30.10,NNE,22,0.0,0.0,72,0.00,CLR,,0.00,WeatherDisplay:10.37,2013-01-05 13:11:00,
2013-01-05 08:12:00,31.8,23.8,30.10,North,0,5.8,5.8,72,0.00,CLR,,0.00,WeatherDisplay:10.37,2013-01-05 13:12:00,
2013-01-05 08:14:00,32.0,24.0,30.10,NW,315,4.6,4.6,72,0.00,CLR,,0.00,WeatherDisplay:10.37,2013-01-05 13:14:00,
2013-01-05 08:16:00,32.0,24.0,30.10,NNW,338,2.3,2.3,72,0.00,CLR,,0.00,WeatherDisplay:10.37,2013-01-05 13:16:00,
2013-01-05 08:17:00,32.0,24.0,30.10,ENE,68,2.3,2.3,72,0.00,CLR,,0.00,WeatherDisplay:10.37,2013-01-05 13:17:00,
2013-01-05 08:19:00,32.0,24.0,30.10,WNW,292,3.5,3.5,72,0.00,CLR,,0.00,WeatherDisplay:10.37,2013-01-05 13:19:00,
2013-01-05 08:21:00,32.0,24.0,30.10,NNE,22,5.8,5.8,72,0.00,CLR,,0.00,WeatherDisplay:10.37,2013-01-05 13:21:00,
2013-01-05 08:23:00,32.0,24.0,30.10,NNE,22,3.5,3.5,72,0.00,CLR,,0.00,WeatherDisplay:10.37,2013-01-05 13:23:00,
2013-01-05 08:24:00,32.0,24.0,30.10,NNW,338,2.3,2.3,72,0.00,CLR,,0.00,WeatherDisplay:10.37,2013-01-05 13:24:00,
2013-01-05 08:26:00,32.2,24.2,30.10,ESE,112,4.6,4.6,72,0.00,CLR,,0.00,WeatherDisplay:10.37,2013-01-05 13:26:00,
2013-01-05 08:28:00,32.2,24.2,30.10,WNW,292,7.4,7.4,72,0.00,CLR,,0.00,WeatherDisplay:10.37,2013-01-05 13:28:00,
2013-01-05 08:29:00,32.2,23.8,30.10,NNE,22,6.9,6.9,71,0.00,CLR,,0.00,WeatherDisplay:10.37,2013-01-05 13:29:00,
2013-01-05 08:31:00,32.2,23.8,30.10,NW,315,2.3,2.3,71,0.00,CLR,,0.00,WeatherDisplay:10.37,2013-01-05 13:31:00,
2013-01-05 08:33:00,32.2,23.8,30.10,NNE,22,3.6,3.6,71,0.00,CLR,,0.00,WeatherDisplay:10.37,2013-01-05 13:33:00,
2013-01-05 08:35:00,32.2,23.8,30.10,NNE,22,2.3,2.3,71,0.00,CLR,,0.00,WeatherDisplay:10.37,2013-01-05 13:35:00,
2013-01-05 08:36:00,32.4,24.0,30.10,NNE,22,2.3,2.3,71,0.00,CLR,,0.00,WeatherDisplay:10.37,2013-01-05 13:36:00,
2013-01-05 08:37:00,32.4,24.0,30.10,ENE,68,2.3,0.0,71,0.00,CLR,,0.00,WeatherDisplay:10.37,2013-01-05 13:37:00,
2013-01-05 08:38:00,32.4,24.0,30.10,West,270,2.3,2.3,71,0.00,CLR,,0.00,WeatherDisplay:10.37,2013-01-05 13:38:00,
2013-01-05 08:40:00,32.4,24.0,30.10,NW,315,3.6,3.6,71,0.00,CLR,,0.00,WeatherDisplay:10.37,2013-01-05 13:40:00,
2013-01-05 08:41:00,32.4,24.0,30.10,East,90,8.1,8.1,71,0.00,CLR,,0.00,WeatherDisplay:10.37,2013-01-05 13:41:00,
2013-01-05 08:42:00,32.4,24.0,30.10,East,90,8.1,8.1,71,0.00,CLR,,0.00,WeatherDisplay:10.37,2013-01-05 13:42:00,
2013-01-05 08:43:00,32.4,24.0,30.10,North,0,3.5,3.5,71,0.00,CLR,,0.00,WeatherDisplay:10.37,2013-01-05 13:43:00,
2013-01-05 08:45:00,32.4,24.0,30.10,NNW,338,2.3,2.3,71,0.00,CLR,,0.00,WeatherDisplay:10.37,2013-01-05 13:45:00,
2013-01-05 08:47:00,32.4,24.0,30.10,WNW,292,2.3,0.0,71,0.00,CLR,,0.00,WeatherDisplay:10.37,2013-01-05 13:47:00,
2013-01-05 08:48:00,32.4,24.0,30.10,NNE,22,2.3,2.3,71,0.00,CLR,,0.00,WeatherDisplay:10.37,2013-01-05 13:48:00,
2013-01-05 08:50:00,32.4,24.0,30.10,WNW,292,4.6,4.6,71,0.00,CLR,,0.00,WeatherDisplay:10.37,2013-01-05 13:50:00,
2013-01-05 08:52:00,32.4,24.0,30.10,WNW,292,3.5,3.5,71,0.00,CLR,,0.00,WeatherDisplay:10.37,2013-01-05 13:52:00,
2013-01-05 08:53:00,32.4,24.0,30.10,East,90,3.3,0.0,71,0.00,CLR,,0.00,WeatherDisplay:10.37,2013-01-05 13:53:00,
2013-01-05 08:55:00,32.5,24.2,30.10,WNW,292,4.6,4.6,71,0.00,CLR,,0.00,WeatherDisplay:10.37,2013-01-05 13:55:00,
2013-01-05 08:57:00,32.5,24.2,30.10,North,0,3.6,3.6,71,0.00,CLR,,0.00,WeatherDisplay:10.37,2013-01-05 13:57:00,
2013-01-05 08:58:00,32.5,24.2,30.10,ENE,68,3.5,3.5,71,0.00,CLR,,0.00,WeatherDisplay:10.37,2013-01-05 13:58:00,
2013-01-05 09:00:00,32.5,24.2,30.10,WSW,248,3.5,3.5,71,0.00,CLR,,0.00,WeatherDisplay:10.37,2013-01-05 14:00:00,
2013-01-05 09:02:00,32.5,24.2,30.10,North,0,3.5,3.6,71,0.00,CLR,,0.00,WeatherDisplay:10.37,2013-01-05 14:02:00,
2013-01-05 09:03:00,32.5,24.2,30.10,North,0,3.5,3.5,71,0.00,CLR,,0.00,WeatherDisplay:10.37,2013-01-05 14:03:00,
2013-01-05 09:05:00,32.5,24.2,30.10,NNW,338,5.4,5.4,71,0.00,CLR,,0.00,WeatherDisplay:10.37,2013-01-05 14:05:00,
2013-01-05 09:07:00,32.5,24.2,30.10,NNE,22,4.6,4.6,71,0.00,CLR,,0.00,WeatherDisplay:10.37,2013-01-05 14:07:00,
2013-01-05 09:08:00,32.5,24.2,30.10,West,270,3.5,3.5,71,0.00,CLR,,0.00,WeatherDisplay:10.37,2013-01-05 14:08:00,
2013-01-05 09:09:00,32.5,24.2,30.10,East,90,3.5,3.5,71,0.00,CLR,,0.00,WeatherDisplay:10.37,2013-01-05 14:09:00,
2013-01-05 09:10:00,32.7,24.3,30.10,East,90,2.3,2.3,71,0.00,CLR,,0.00,WeatherDisplay:10.37,2013-01-05 14:10:00,
2013-01-05 09:12:00,32.7,24.3,30.13,ENE,68,3.5,3.5,71,0.00,CLR,,0.00,WeatherDisplay:10.37,2013-01-05 14:12:00,
2013-01-05 09:13:00,32.7,24.3,30.13,ENE,68,6.4,0.0,71,0.00,CLR,,0.00,WeatherDisplay:10.37,2013-01-05 14:13:00,
2013-01-05 09:14:00,32.7,24.3,30.13,NW,315,6.9,6.9,71,0.00,CLR,,0.00,WeatherDisplay:10.37,2013-01-05 14:14:00,
2013-01-05 09:15:00,32.7,24.3,30.13,NNE,22,5.8,5.8,71,0.00,CLR,,0.00,WeatherDisplay:10.37,2013-01-05 14:15:00,
2013-01-05 09:17:00,32.9,24.5,30.13,NE,45,4.6,4.6,71,0.00,CLR,,0.00,WeatherDisplay:10.37,2013-01-05 14:17:00,
2013-01-05 09:18:00,32.9,24.5,30.13,ENE,68,3.5,3.5,71,0.00,CLR,,0.00,WeatherDisplay:10.37,2013-01-05 14:18:00,
2013-01-05 09:19:00,32.9,24.5,30.13,NNE,22,2.3,2.3,71,0.00,CLR,,0.00,WeatherDisplay:10.37,2013-01-05 14:19:00,
2013-01-05 09:20:00,32.9,24.5,30.13,NE,45,2.4,2.4,71,0.00,CLR,,0.00,WeatherDisplay:10.37,2013-01-05 14:20:00,
2013-01-05 09:23:00,33.1,24.7,30.13,ENE,68,1.1,1.1,71,0.00,CLR,,0.00,WeatherDisplay:10.37,2013-01-05 14:23:00,
2013-01-05 09:24:00,33.1,24.7,30.13,ENE,68,3.3,3.3,71,0.00,CLR,,0.00,WeatherDisplay:10.37,2013-01-05 14:24:00,
2013-01-05 09:25:00,33.1,24.7,30.13,NNE,22,3.5,3.5,71,0.00,CLR,,0.00,WeatherDisplay:10.37,2013-01-05 14:25:00,
2013-01-05 09:28:00,33.1,24.4,30.13,NNW,338,3.5,3.5,70,0.00,CLR,,0.00,WeatherDisplay:10.37,2013-01-05 14:28:00,
2013-01-05 09:29:00,33.1,24.4,30.13,NNW,338,4.6,4.6,70,0.00,CLR,,0.00,WeatherDisplay:10.37,2013-01-05 14:29:00,
2013-01-05 09:30:00,33.1,24.4,30.13,ENE,68,2.3,2.3,70,0.00,CLR,,0.00,WeatherDisplay:10.37,2013-01-05 14:30:00,
2013-01-05 09:33:00,33.1,24.4,30.13,NNW,338,3.8,3.8,70,0.00,CLR,,0.00,WeatherDisplay:10.37,2013-01-05 14:33:00,
2013-01-05 09:34:00,33.1,24.4,30.13,NNE,22,3.5,3.5,70,0.00,CLR,,0.00,WeatherDisplay:10.37,2013-01-05 14:34:00,
2013-01-05 09:35:00,33.1,24.4,30.13,ENE,68,2.3,2.3,70,0.00,CLR,,0.00,WeatherDisplay:10.37,2013-01-05 14:35:00,
2013-01-05 09:38:00,33.1,24.4,30.13,WNW,292,2.9,2.9,70,0.00,CLR,,0.00,WeatherDisplay:10.37,2013-01-05 14:38:00,
2013-01-05 09:39:00,33.1,24.4,30.13,SSE,158,3.1,3.1,70,0.00,CLR,,0.00,WeatherDisplay:10.37,2013-01-05 14:39:00,
2013-01-05 09:40:00,33.1,24.4,30.13,North,0,3.5,3.5,70,0.00,CLR,,0.00,WeatherDisplay:10.37,2013-01-05 14:40:00,
2013-01-05 09:43:00,33.3,24.5,30.13,NE,45,2.3,2.3,70,0.00,CLR,,0.00,WeatherDisplay:10.37,2013-01-05 14:43:00,
2013-01-05 09:44:00,33.3,24.5,30.13,NE,45,2.3,2.3,70,0.00,CLR,,0.00,WeatherDisplay:10.37,2013-01-05 14:44:00,
2013-01-05 09:45:00,33.3,24.5,30.13,ESE,112,3.5,3.5,70,0.00,CLR,,0.00,WeatherDisplay:10.37,2013-01-05 14:45:00,
2013-01-05 09:48:00,33.4,24.7,30.13,NNW,338,4.7,4.7,70,0.00,CLR,,0.00,WeatherDisplay:10.37,2013-01-05 14:48:00,
2013-01-05 09:49:00,33.4,24.4,30.13,NNW,338,4.6,4.6,69,0.00,CLR,,0.00,WeatherDisplay:10.37,2013-01-05 14:49:00,
2013-01-05 09:50:00,33.4,24.4,30.13,West,270,3.6,3.6,69,0.00,CLR,,0.00,WeatherDisplay:10.37,2013-01-05 14:50:00,
2013-01-05 09:53:00,33.6,24.5,30.13,NNW,338,3.5,0.0,69,0.00,CLR,,0.00,WeatherDisplay:10.37,2013-01-05 14:53:00,
2013-01-05 09:54:00,33.6,24.5,30.13,ENE,68,3.5,3.5,69,0.00,CLR,,0.00,WeatherDisplay:10.37,2013-01-05 14:54:00,
2013-01-05 09:55:00,33.6,24.5,30.13,WNW,292,4.0,4.0,69,0.00,CLR,,0.00,WeatherDisplay:10.37,2013-01-05 14:55:00,
2013-01-05 09:58:00,33.6,24.5,30.13,ENE,68,5.8,5.8,69,0.00,CLR,,0.00,WeatherDisplay:10.37,2013-01-05 14:58:00,
2013-01-05 09:59:00,33.8,24.4,30.13,NE,45,2.3,2.3,68,0.00,CLR,,0.00,WeatherDisplay:10.37,2013-01-05 14:59:00,
2013-01-05 10:00:00,33.8,24.4,30.13,NE,45,2.3,2.3,68,0.00,CLR,,0.00,WeatherDisplay:10.37,2013-01-05 15:00:00,
2013-01-05 10:04:00,33.8,24.4,30.13,ENE,68,3.5,3.5,68,0.00,CLR,,0.00,WeatherDisplay:10.37,2013-01-05 15:04:00,
2013-01-05 10:05:00,33.8,24.4,30.13,NNE,22,3.5,3.5,68,0.00,CLR,,0.00,WeatherDisplay:10.37,2013-01-05 15:05:00,
2013-01-05 10:06:00,33.8,24.0,30.13,ENE,68,4.6,4.6,67,0.00,CLR,,0.00,WeatherDisplay:10.37,2013-01-05 15:06:00,
2013-01-05 10:09:00,33.8,24.4,30.13,NNW,338,2.2,0.0,68,0.00,CLR,,0.00,WeatherDisplay:10.37,2013-01-05 15:09:00,
2013-01-05 10:10:00,34.0,24.5,30.13,NW,315,2.6,2.6,68,0.00,CLR,,0.00,WeatherDisplay:10.37,2013-01-05 15:10:00,
2013-01-05 10:11:00,33.8,24.4,30.13,ENE,68,4.7,4.7,68,0.00,CLR,,0.00,WeatherDisplay:10.37,2013-01-05 15:11:00,
2013-01-05 10:14:00,34.0,24.2,30.13,SSE,158,3.5,3.5,67,0.00,CLR,,0.00,WeatherDisplay:10.37,2013-01-05 15:14:00,
2013-01-05 10:15:00,34.0,24.2,30.13,NNE,22,0.0,0.0,67,0.00,CLR,,0.00,WeatherDisplay:10.37,2013-01-05 15:15:00,
2013-01-05 10:16:00,34.2,24.7,30.13,SSE,158,0.0,0.0,68,0.00,CLR,,0.00,WeatherDisplay:10.37,2013-01-05 15:16:00,
2013-01-05 10:19:00,34.0,24.2,30.13,NNE,22,5.8,5.8,67,0.00,CLR,,0.00,WeatherDisplay:10.37,2013-01-05 15:19:00,
2013-01-05 10:20:00,34.0,23.8,30.13,NW,315,5.8,5.8,66,0.00,CLR,,0.00,WeatherDisplay:10.37,2013-01-05 15:20:00,
2013-01-05 10:21:00,34.0,23.8,30.13,WNW,292,4.6,4.6,66,0.00,CLR,,0.00,WeatherDisplay:10.37,2013-01-05 15:21:00,
2013-01-05 10:24:00,34.2,24.0,30.13,WNW,292,4.0,4.0,66,0.00,CLR,,0.00,WeatherDisplay:10.37,2013-01-05 15:24:00,
2013-01-05 10:25:00,34.2,24.0,30.13,WNW,292,4.6,4.6,66,0.00,CLR,,0.00,WeatherDisplay:10.37,2013-01-05 15:25:00,
2013-01-05 10:26:00,34.2,24.0,30.13,WNW,292,3.1,3.1,66,0.00,CLR,,0.00,WeatherDisplay:10.37,2013-01-05 15:26:00,
2013-01-05 10:30:00,34.0,23.8,30.13,WNW,292,3.8,3.8,66,0.00,CLR,,0.00,WeatherDisplay:10.37,2013-01-05 15:30:00,
2013-01-05 10:31:00,34.0,23.8,30.13,NNE,22,3.5,3.5,66,0.00,CLR,,0.00,WeatherDisplay:10.37,2013-01-05 15:31:00,
2013-01-05 10:35:00,34.3,24.2,30.13,ENE,68,5.8,5.8,66,0.00,CLR,,0.00,WeatherDisplay:10.37,2013-01-05 15:35:00,
2013-01-05 10:36:00,34.2,24.0,30.13,NW,315,5.8,5.8,66,0.00,CLR,,0.00,WeatherDisplay:10.37,2013-01-05 15:36:00,
2013-01-05 10:40:00,34.3,24.2,30.13,NW,315,4.3,4.3,66,0.00,CLR,,0.00,WeatherDisplay:10.37,2013-01-05 15:40:00,
2013-01-05 10:41:00,34.3,24.2,30.16,NNW,338,4.6,4.6,66,0.00,CLR,,0.00,WeatherDisplay:10.37,2013-01-05 15:41:00,
2013-01-05 10:45:00,34.5,24.7,30.16,North,0,4.6,4.6,67,0.00,CLR,,0.00,WeatherDisplay:10.37,2013-01-05 15:45:00,
2013-01-05 10:46:00,34.5,24.7,30.16,NW,315,3.5,3.5,67,0.00,CLR,,0.00,WeatherDisplay:10.37,2013-01-05 15:46:00,
2013-01-05 10:50:00,34.7,24.5,30.16,WNW,292,3.5,3.5,66,0.00,CLR,,0.00,WeatherDisplay:10.37,2013-01-05 15:50:00,
2013-01-05 10:51:00,34.9,24.7,30.16,WNW,292,4.9,4.9,66,0.00,CLR,,0.00,WeatherDisplay:10.37,2013-01-05 15:51:00,
2013-01-05 10:55:00,35.2,25.4,30.16,NW,315,2.4,2.4,67,0.00,CLR,,0.00,WeatherDisplay:10.37,2013-01-05 15:55:00,
2013-01-05 10:56:00,35.2,25.4,30.13,NNW,338,2.3,2.3,67,0.00,CLR,,0.00,WeatherDisplay:10.37,2013-01-05 15:56:00,
2013-01-05 11:00:00,35.4,25.5,30.13,WNW,292,0.0,0.0,67,0.00,CLR,,0.00,WeatherDisplay:10.37,2013-01-05 16:00:00,
2013-01-05 11:01:00,35.4,25.2,30.13,NW,315,4.7,0.0,66,0.00,CLR,,0.00,WeatherDisplay:10.37,2013-01-05 16:01:00,
2013-01-05 11:05:00,35.4,24.8,30.13,NNW,338,3.5,3.5,65,0.00,CLR,,0.00,WeatherDisplay:10.37,2013-01-05 16:05:00,
2013-01-05 11:06:00,35.6,25.0,30.13,NW,315,2.3,2.3,65,0.00,CLR,,0.00,WeatherDisplay:10.37,2013-01-05 16:06:00,
2013-01-05 11:10:00,35.8,24.8,30.13,WNW,292,3.5,3.5,64,0.00,CLR,,0.00,WeatherDisplay:10.37,2013-01-05 16:10:00,
2013-01-05 11:11:00,35.8,25.2,30.13,WSW,248,2.3,2.3,65,0.00,CLR,,0.00,WeatherDisplay:10.37,2013-01-05 16:11:00,
2013-01-05 11:16:00,36.1,25.5,30.13,WNW,292,3.5,3.5,65,0.00,CLR,,0.00,WeatherDisplay:10.37,2013-01-05 16:16:00,
2013-01-05 11:17:00,36.1,25.1,30.13,North,0,3.5,3.5,64,0.00,CLR,,0.00,WeatherDisplay:10.37,2013-01-05 16:17:00,
2013-01-05 11:21:00,36.5,25.5,30.13,WNW,292,3.5,3.5,64,0.00,CLR,,0.00,WeatherDisplay:10.37,2013-01-05 16:21:00,
2013-01-05 11:22:00,36.7,25.6,30.13,NNE,22,3.3,3.3,64,0.00,CLR,,0.00,WeatherDisplay:10.37,2013-01-05 16:22:00,
2013-01-05 11:26:00,36.7,25.3,30.13,West,270,6.0,6.0,63,0.00,CLR,,0.00,WeatherDisplay:10.37,2013-01-05 16:26:00,
2013-01-05 11:27:00,36.7,24.9,30.13,West,270,6.0,6.0,62,0.00,CLR,,0.00,WeatherDisplay:10.37,2013-01-05 16:27:00,
2013-01-05 11:31:00,36.9,24.7,30.13,NNW,338,2.3,2.3,61,0.00,CLR,,0.00,WeatherDisplay:10.37,2013-01-05 16:31:00,
2013-01-05 11:32:00,37.0,25.2,30.13,SSE,158,2.3,2.3,62,0.00,CLR,,0.00,WeatherDisplay:10.37,2013-01-05 16:32:00,
2013-01-05 11:36:00,37.4,25.2,30.13,WSW,248,5.8,5.8,61,0.00,CLR,,0.00,WeatherDisplay:10.37,2013-01-05 16:36:00,
2013-01-05 11:37:00,37.4,24.8,30.13,North,0,5.8,5.8,60,0.00,CLR,,0.00,WeatherDisplay:10.37,2013-01-05 16:37:00,
2013-01-05 11:41:00,37.8,25.1,30.13,WNW,292,3.5,3.5,60,0.00,CLR,,0.00,WeatherDisplay:10.37,2013-01-05 16:41:00,
2013-01-05 11:42:00,37.8,25.1,30.13,NW,315,3.8,3.8,60,0.00,CLR,,0.00,WeatherDisplay:10.37,2013-01-05 16:42:00,
2013-01-05 11:46:00,38.1,24.6,30.13,NNW,338,5.6,5.6,58,0.00,CLR,,0.00,WeatherDisplay:10.37,2013-01-05 16:46:00,
2013-01-05 11:47:00,38.3,24.8,30.13,WNW,292,5.8,5.8,58,0.00,CLR,,0.00,WeatherDisplay:10.37,2013-01-05 16:47:00,
2013-01-05 11:51:00,38.7,24.7,30.13,NE,45,3.6,3.6,57,0.00,CLR,,0.00,WeatherDisplay:10.37,2013-01-05 16:51:00,
2013-01-05 11:52:00,38.7,24.7,30.13,NE,45,3.6,3.6,57,0.00,CLR,,0.00,WeatherDisplay:10.37,2013-01-05 16:52:00,
2013-01-05 11:53:00,38.7,24.7,30.13,NNW,338,4.6,4.6,57,0.00,CLR,,0.00,WeatherDisplay:10.37,2013-01-05 16:53:00,
2013-01-05 11:57:00,39.2,25.2,30.10,NE,45,2.4,0.0,57,0.00,CLR,,0.00,WeatherDisplay:10.37,2013-01-05 16:57:00,
2013-01-05 11:58:00,38.8,24.5,30.10,NNW,338,4.3,4.3,56,0.00,CLR,,0.00,WeatherDisplay:10.37,2013-01-05 16:58:00,
2013-01-05 12:02:00,38.3,24.0,30.10,SW,225,5.8,5.8,56,0.00,CLR,,0.00,WeatherDisplay:10.37,2013-01-05 17:02:00,
2013-01-05 12:03:00,38.3,24.0,30.10,NW,315,4.6,4.6,56,0.00,CLR,,0.00,WeatherDisplay:10.37,2013-01-05 17:03:00,
2013-01-05 12:07:00,39.0,25.1,30.10,West,270,2.3,0.0,57,0.00,CLR,,0.00,WeatherDisplay:10.37,2013-01-05 17:07:00,
2013-01-05 12:08:00,39.4,25.4,30.10,North,0,1.6,0.0,57,0.00,CLR,,0.00,WeatherDisplay:10.37,2013-01-05 17:08:00,
2013-01-05 12:12:00,40.1,25.6,30.10,NNE,22,0.0,0.0,56,0.00,CLR,,0.00,WeatherDisplay:10.37,2013-01-05 17:12:00,
2013-01-05 12:13:00,40.1,25.6,30.10,NNE,22,2.4,0.0,56,0.00,CLR,,0.00,WeatherDisplay:10.37,2013-01-05 17:13:00,
2013-01-05 12:17:00,39.6,23.8,30.10,NNW,338,5.8,5.8,53,0.00,CLR,,0.00,WeatherDisplay:10.37,2013-01-05 17:17:00,
2013-01-05 12:18:00,39.4,23.7,30.10,WNW,292,4.6,4.6,53,0.00,CLR,,0.00,WeatherDisplay:10.37,2013-01-05 17:18:00,
2013-01-05 12:22:00,38.8,23.6,30.10,WSW,248,6.9,6.9,54,0.00,CLR,,0.00,WeatherDisplay:10.37,2013-01-05 17:22:00,
2013-01-05 12:23:00,38.8,23.6,30.10,WNW,292,6.9,6.9,54,0.00,CLR,,0.00,WeatherDisplay:10.37,2013-01-05 17:23:00,
2013-01-05 12:27:00,38.8,23.6,30.10,WNW,292,4.6,4.6,54,0.00,CLR,,0.00,WeatherDisplay:10.37,2013-01-05 17:27:00,
2013-01-05 12:28:00,39.0,23.8,30.10,NNE,22,5.8,5.8,54,0.00,CLR,,0.00,WeatherDisplay:10.37,2013-01-05 17:28:00,
2013-01-05 12:32:00,39.2,23.9,30.10,WNW,292,4.5,4.5,54,0.00,CLR,,0.00,WeatherDisplay:10.37,2013-01-05 17:32:00,
2013-01-05 12:33:00,39.2,23.9,30.10,West,270,5.4,5.4,54,0.00,CLR,,0.00,WeatherDisplay:10.37,2013-01-05 17:33:00,
2013-01-05 12:38:00,38.8,23.6,30.10,NNW,338,5.8,5.8,54,0.00,CLR,,0.00,WeatherDisplay:10.37,2013-01-05 17:38:00,
2013-01-05 12:39:00,39.0,23.8,30.10,North,0,3.5,3.5,54,0.00,CLR,,0.00,WeatherDisplay:10.37,2013-01-05 17:39:00,
2013-01-05 12:43:00,38.8,23.6,30.10,WSW,248,4.6,4.6,54,0.00,CLR,,0.00,WeatherDisplay:10.37,2013-01-05 17:43:00,
2013-01-05 12:44:00,38.8,23.6,30.10,NW,315,4.6,4.6,54,0.00,CLR,,0.00,WeatherDisplay:10.37,2013-01-05 17:44:00,
2013-01-05 12:48:00,38.5,23.3,30.10,WNW,292,6.0,6.0,54,0.00,CLR,,0.00,WeatherDisplay:10.37,2013-01-05 17:48:00,
2013-01-05 12:49:00,38.1,22.9,30.10,North,0,5.8,5.8,54,0.00,CLR,,0.00,WeatherDisplay:10.37,2013-01-05 17:49:00,
2013-01-05 12:53:00,38.7,23.9,30.10,WNW,292,4.6,4.6,55,0.00,CLR,,0.00,WeatherDisplay:10.37,2013-01-05 17:53:00,
2013-01-05 12:54:00,38.7,23.9,30.10,NE,45,4.6,4.6,55,0.00,CLR,,0.00,WeatherDisplay:10.37,2013-01-05 17:54:00,
2013-01-05 12:58:00,38.8,24.0,30.10,NNE,22,2.6,2.6,55,0.00,CLR,,0.00,WeatherDisplay:10.37,2013-01-05 17:58:00,
2013-01-05 12:59:00,38.8,24.0,30.10,WNW,292,2.6,2.6,55,0.00,CLR,,0.00,WeatherDisplay:10.37,2013-01-05 17:59:00,
2013-01-05 13:03:00,39.0,23.3,30.10,NNW,338,4.7,0.0,53,0.00,CLR,,0.00,WeatherDisplay:10.37,2013-01-05 18:03:00,
2013-01-05 13:04:00,38.8,22.7,30.10,NNW,338,5.8,5.8,52,0.00,CLR,,0.00,WeatherDisplay:10.37,2013-01-05 18:04:00,
2013-01-05 13:08:00,39.6,23.4,30.10,NE,45,4.6,4.6,52,0.00,CLR,,0.00,WeatherDisplay:10.37,2013-01-05 18:08:00,
2013-01-05 13:09:00,39.7,23.5,30.10,ENE,68,1.1,0.0,52,0.00,CLR,,0.00,WeatherDisplay:10.37,2013-01-05 18:09:00,
2013-01-05 13:13:00,39.7,23.1,30.10,NE,45,4.3,4.3,51,0.00,CLR,,0.00,WeatherDisplay:10.37,2013-01-05 18:13:00,
2013-01-05 13:14:00,39.6,22.4,30.10,ENE,68,4.6,4.6,50,0.00,CLR,,0.00,WeatherDisplay:10.37,2013-01-05 18:14:00,
2013-01-05 13:18:00,40.5,23.7,30.10,ENE,68,4.6,4.6,51,0.00,CLR,,0.00,WeatherDisplay:10.37,2013-01-05 18:18:00,
2013-01-05 13:19:00,40.5,23.7,30.10,WNW,292,2.3,2.3,51,0.00,CLR,,0.00,WeatherDisplay:10.37,2013-01-05 18:19:00,
2013-01-05 13:24:00,40.6,23.4,30.10,North,0,2.3,2.3,50,0.00,CLR,,0.00,WeatherDisplay:10.37,2013-01-05 18:24:00,
2013-01-05 13:29:00,40.3,23.1,30.07,NNE,22,3.1,3.1,50,0.00,CLR,,0.00,WeatherDisplay:10.37,2013-01-05 18:29:00,
2013-01-05 13:34:00,40.1,22.9,30.07,NNW,338,4.6,4.6,50,0.00,CLR,,0.00,WeatherDisplay:10.37,2013-01-05 18:34:00,
2013-01-05 13:35:00,40.1,22.9,30.07,NW,315,4.9,4.9,50,0.00,CLR,,0.00,WeatherDisplay:10.37,2013-01-05 18:35:00,
2013-01-05 13:39:00,39.7,22.6,30.07,NNW,338,3.6,3.6,50,0.00,CLR,,0.00,WeatherDisplay:10.37,2013-01-05 18:39:00,
2013-01-05 13:40:00,39.4,22.3,30.07,NW,315,4.6,4.6,50,0.00,CLR,,0.00,WeatherDisplay:10.37,2013-01-05 18:40:00,
2013-01-05 13:44:00,39.2,22.1,30.07,NNW,338,3.5,3.5,50,0.00,CLR,,0.00,WeatherDisplay:10.37,2013-01-05 18:44:00,
2013-01-05 13:45:00,39.4,22.3,30.07,NNW,338,4.6,4.6,50,0.00,CLR,,0.00,WeatherDisplay:10.37,2013-01-05 18:45:00,
2013-01-05 13:49:00,39.6,22.4,30.07,ENE,68,4.6,4.6,50,0.00,CLR,,0.00,WeatherDisplay:10.37,2013-01-05 18:49:00,
2013-01-05 13:50:00,39.7,22.6,30.07,WNW,292,3.5,3.5,50,0.00,CLR,,0.00,WeatherDisplay:10.37,2013-01-05 18:50:00,
2013-01-05 13:54:00,39.7,23.1,30.07,West,270,1.6,1.6,51,0.00,CLR,,0.00,WeatherDisplay:10.37,2013-01-05 18:54:00,
2013-01-05 13:55:00,39.7,23.1,30.07,SW,225,2.3,2.3,51,0.00,CLR,,0.00,WeatherDisplay:10.37,2013-01-05 18:55:00,
2013-01-05 13:56:00,39.4,22.3,30.04,ENE,68,2.3,2.3,50,0.00,CLR,,0.00,WeatherDisplay:10.37,2013-01-05 18:56:00,
2013-01-05 13:59:00,38.7,22.1,30.04,NNW,338,2.9,3.1,51,0.00,CLR,,0.00,WeatherDisplay:10.37,2013-01-05 18:59:00,
2013-01-05 14:00:00,38.7,22.1,30.04,NNW,338,5.8,5.8,51,0.00,CLR,,0.00,WeatherDisplay:10.37,2013-01-05 19:00:00,
2013-01-05 14:01:00,38.5,21.4,30.04,NNW,338,5.8,5.8,50,0.00,CLR,,0.00,WeatherDisplay:10.37,2013-01-05 19:01:00,
2013-01-05 14:04:00,37.9,21.4,30.04,North,0,3.1,3.1,51,0.00,CLR,,0.00,WeatherDisplay:10.37,2013-01-05 19:04:00,
2013-01-05 14:05:00,37.9,21.4,30.04,NW,315,3.5,3.5,51,0.00,CLR,,0.00,WeatherDisplay:10.37,2013-01-05 19:05:00,
2013-01-05 14:06:00,37.9,21.4,30.04,ENE,68,2.3,2.3,51,0.00,CLR,,0.00,WeatherDisplay:10.37,2013-01-05 19:06:00,
2013-01-05 14:09:00,37.9,21.4,30.04,NE,45,5.8,0.0,51,0.00,CLR,,0.00,WeatherDisplay:10.37,2013-01-05 19:09:00,
2013-01-05 14:10:00,37.8,21.7,30.04,West,270,2.3,0.0,52,0.00,CLR,,0.00,WeatherDisplay:10.37,2013-01-05 19:10:00,
2013-01-05 14:11:00,37.6,21.5,30.04,NNE,22,2.3,2.3,52,0.00,CLR,,0.00,WeatherDisplay:10.37,2013-01-05 19:11:00,
2013-01-05 14:15:00,37.6,21.5,30.04,North,0,3.8,3.8,52,0.00,CLR,,0.00,WeatherDisplay:10.37,2013-01-05 19:15:00,
2013-01-05 14:16:00,37.6,21.5,30.04,NNE,22,4.6,4.6,52,0.00,CLR,,0.00,WeatherDisplay:10.37,2013-01-05 19:16:00,
2013-01-05 14:20:00,37.8,21.7,30.04,NNE,22,1.4,0.0,52,0.00,CLR,,0.00,WeatherDisplay:10.37,2013-01-05 19:20:00,
2013-01-05 14:21:00,37.8,22.1,30.04,East,90,2.3,2.3,53,0.00,CLR,,0.00,WeatherDisplay:10.37,2013-01-05 19:21:00,
2013-01-05 14:25:00,37.8,22.1,30.04,ENE,68,1.1,1.1,53,0.00,CLR,,0.00,WeatherDisplay:10.37,2013-01-05 19:25:00,
2013-01-05 14:26:00,37.6,22.0,30.07,NW,315,2.3,2.3,53,0.00,CLR,,0.00,WeatherDisplay:10.37,2013-01-05 19:26:00,
2013-01-05 14:30:00,37.4,21.8,30.07,NE,45,3.8,3.8,53,0.00,CLR,,0.00,WeatherDisplay:10.37,2013-01-05 19:30:00,
2013-01-05 14:31:00,37.4,21.8,30.07,NNW,338,3.5,3.5,53,0.00,CLR,,0.00,WeatherDisplay:10.37,2013-01-05 19:31:00,
2013-01-05 14:35:00,37.2,21.6,30.07,NNE,22,3.3,3.3,53,0.00,CLR,,0.00,WeatherDisplay:10.37,2013-01-05 19:35:00,
2013-01-05 14:36:00,37.2,21.6,30.07,WNW,292,4.6,4.6,53,0.00,CLR,,0.00,WeatherDisplay:10.37,2013-01-05 19:36:00,
2013-01-05 14:37:00,37.0,21.9,30.07,West,270,3.5,3.5,54,0.00,CLR,,0.00,WeatherDisplay:10.37,2013-01-05 19:37:00,
2013-01-05 14:40:00,37.0,21.9,30.07,West,270,5.9,5.9,54,0.00,CLR,,0.00,WeatherDisplay:10.37,2013-01-05 19:40:00,
2013-01-05 14:41:00,37.0,21.9,30.07,NW,315,8.1,8.1,54,0.00,CLR,,0.00,WeatherDisplay:10.37,2013-01-05 19:41:00,
2013-01-05 14:42:00,37.0,21.9,30.07,NE,45,3.5,3.5,54,0.00,CLR,,0.00,WeatherDisplay:10.37,2013-01-05 19:42:00,
2013-01-05 14:45:00,36.7,21.6,30.07,WNW,292,5.4,5.4,54,0.00,CLR,,0.00,WeatherDisplay:10.37,2013-01-05 19:45:00,
2013-01-05 14:46:00,36.7,21.6,30.07,NNW,338,5.8,5.8,54,0.00,CLR,,0.00,WeatherDisplay:10.37,2013-01-05 19:46:00,
2013-01-05 14:47:00,36.7,21.6,30.07,NNW,338,3.5,3.5,54,0.00,CLR,,0.00,WeatherDisplay:10.37,2013-01-05 19:47:00,
2013-01-05 14:50:00,36.7,21.6,30.07,WNW,292,6.9,6.9,54,0.00,CLR,,0.00,WeatherDisplay:10.37,2013-01-05 19:50:00,
2013-01-05 14:51:00,36.7,21.6,30.07,West,270,5.8,5.8,54,0.00,CLR,,0.00,WeatherDisplay:10.37,2013-01-05 19:51:00,
2013-01-05 14:52:00,36.7,21.6,30.07,North,0,3.5,3.5,54,0.00,CLR,,0.00,WeatherDisplay:10.37,2013-01-05 19:52:00,
2013-01-05 14:53:00,36.9,21.7,30.07,ENE,68,2.3,2.3,54,0.00,CLR,,0.00,WeatherDisplay:10.37,2013-01-05 19:53:00,
2013-01-05 14:55:00,36.9,21.7,30.07,North,0,5.8,5.8,54,0.00,CLR,,0.00,WeatherDisplay:10.37,2013-01-05 19:55:00,
2013-01-05 14:59:00,36.9,21.7,30.07,NNW,338,3.5,3.5,54,0.00,CLR,,0.00,WeatherDisplay:10.37,2013-01-05 19:59:00,
2013-01-05 15:00:00,36.9,21.7,30.07,NW,315,3.5,3.5,54,0.00,CLR,,0.00,WeatherDisplay:10.37,2013-01-05 20:00:00,
2013-01-05 15:04:00,37.0,21.5,30.07,East,90,1.6,1.6,53,0.00,CLR,,0.00,WeatherDisplay:10.37,2013-01-05 20:04:00,
2013-01-05 15:05:00,37.0,21.5,30.07,NE,45,3.6,3.6,53,0.00,CLR,,0.00,WeatherDisplay:10.37,2013-01-05 20:05:00,
2013-01-05 15:09:00,36.9,21.3,30.07,West,270,2.3,2.3,53,0.00,CLR,,0.00,WeatherDisplay:10.37,2013-01-05 20:09:00,
2013-01-05 15:10:00,36.9,21.3,30.07,North,0,2.0,2.0,53,0.00,CLR,,0.00,WeatherDisplay:10.37,2013-01-05 20:10:00,
2013-01-05 15:14:00,36.5,21.0,30.07,NNE,22,2.4,0.0,53,0.00,CLR,,0.00,WeatherDisplay:10.37,2013-01-05 20:14:00,
2013-01-05 15:16:00,36.3,20.8,30.07,NNE,22,2.3,2.3,53,0.00,CLR,,0.00,WeatherDisplay:10.37,2013-01-05 20:16:00,
2013-01-05 15:19:00,36.1,20.6,30.07,NNE,22,3.5,3.5,53,0.00,CLR,,0.00,WeatherDisplay:10.37,2013-01-05 20:19:00,
2013-01-05 15:21:00,36.1,20.6,30.07,NNE,22,1.1,0.0,53,0.00,CLR,,0.00,WeatherDisplay:10.37,2013-01-05 20:21:00,
2013-01-05 15:24:00,36.1,21.1,30.07,West,270,2.4,2.4,54,0.00,CLR,,0.00,WeatherDisplay:10.37,2013-01-05 20:24:00,
2013-01-05 15:25:00,36.1,21.1,30.07,West,270,3.5,3.5,54,0.00,CLR,,0.00,WeatherDisplay:10.37,2013-01-05 20:25:00,
2013-01-05 15:26:00,36.1,21.1,30.07,North,0,3.5,3.5,54,0.00,CLR,,0.00,WeatherDisplay:10.37,2013-01-05 20:26:00,
2013-01-05 15:29:00,36.3,21.2,30.07,NNW,338,4.6,4.6,54,0.00,CLR,,0.00,WeatherDisplay:10.37,2013-01-05 20:29:00,
2013-01-05 15:30:00,36.1,21.1,30.07,NNW,338,4.6,4.6,54,0.00,CLR,,0.00,WeatherDisplay:10.37,2013-01-05 20:30:00,
2013-01-05 15:31:00,36.3,21.2,30.07,WNW,292,4.6,4.6,54,0.00,CLR,,0.00,WeatherDisplay:10.37,2013-01-05 20:31:00,
2013-01-05 15:34:00,36.3,21.7,30.07,NE,45,2.3,2.3,55,0.00,CLR,,0.00,WeatherDisplay:10.37,2013-01-05 20:34:00,
2013-01-05 15:35:00,36.3,21.7,30.07,NNE,22,2.3,2.3,55,0.00,CLR,,0.00,WeatherDisplay:10.37,2013-01-05 20:35:00,
2013-01-05 15:36:00,36.3,21.7,30.07,East,90,2.3,2.3,55,0.00,CLR,,0.00,WeatherDisplay:10.37,2013-01-05 20:36:00,
2013-01-05 15:39:00,36.3,21.7,30.07,WNW,292,1.4,0.0,55,0.00,CLR,,0.00,WeatherDisplay:10.37,2013-01-05 20:39:00,
2013-01-05 15:40:00,36.1,21.5,30.07,WNW,292,1.6,1.6,55,0.00,CLR,,0.00,WeatherDisplay:10.37,2013-01-05 20:40:00,
2013-01-05 15:41:00,36.1,21.5,30.07,North,0,1.1,1.1,55,0.00,CLR,,0.00,WeatherDisplay:10.37,2013-01-05 20:41:00,
2013-01-05 15:44:00,36.1,21.5,30.07,North,0,3.3,3.3,55,0.00,CLR,,0.00,WeatherDisplay:10.37,2013-01-05 20:44:00,
2013-01-05 15:45:00,36.0,21.3,30.07,North,0,3.5,3.5,55,0.00,CLR,,0.00,WeatherDisplay:10.37,2013-01-05 20:45:00,
2013-01-05 15:46:00,36.0,21.3,30.07,NW,315,2.3,2.3,55,0.00,CLR,,0.00,WeatherDisplay:10.37,2013-01-05 20:46:00,
2013-01-05 15:47:00,36.0,21.3,30.07,NNW,338,2.3,2.4,55,0.00,CLR,,0.00,WeatherDisplay:10.37,2013-01-05 20:47:00,
2013-01-05 15:49:00,36.0,21.3,30.07,NNE,22,2.3,2.3,55,0.00,CLR,,0.00,WeatherDisplay:10.37,2013-01-05 20:49:00,
2013-01-05 15:51:00,35.8,21.2,30.07,NW,315,4.6,4.6,55,0.00,CLR,,0.00,WeatherDisplay:10.37,2013-01-05 20:51:00,
2013-01-05 15:52:00,35.8,21.2,30.07,WNW,292,2.3,2.3,55,0.00,CLR,,0.00,WeatherDisplay:10.37,2013-01-05 20:52:00,
2013-01-05 15:54:00,35.6,21.0,30.07,NNW,338,4.6,4.6,55,0.00,CLR,,0.00,WeatherDisplay:10.37,2013-01-05 20:54:00,
2013-01-05 15:56:00,35.6,21.0,30.07,NNE,22,2.2,2.2,55,0.00,CLR,,0.00,WeatherDisplay:10.37,2013-01-05 20:56:00,
2013-01-05 15:58:00,35.6,21.0,30.07,ENE,68,3.5,3.5,55,0.00,CLR,,0.00,WeatherDisplay:10.37,2013-01-05 20:58:00,
2013-01-05 15:59:00,35.6,21.0,30.07,SSW,202,2.3,2.3,55,0.00,CLR,,0.00,WeatherDisplay:10.37,2013-01-05 20:59:00,
2013-01-05 16:02:00,35.4,20.8,30.07,NNE,22,2.3,2.3,55,0.00,CLR,,0.00,WeatherDisplay:10.37,2013-01-05 21:02:00,
2013-01-05 16:03:00,35.4,20.8,30.07,North,0,3.5,3.5,55,0.00,CLR,,0.00,WeatherDisplay:10.37,2013-01-05 21:03:00,
2013-01-05 16:04:00,35.4,21.3,30.07,NNE,22,3.5,0.0,56,0.00,CLR,,0.00,WeatherDisplay:10.37,2013-01-05 21:04:00,
2013-01-05 16:07:00,35.2,21.1,30.07,NNW,338,2.3,2.3,56,0.00,CLR,,0.00,WeatherDisplay:10.37,2013-01-05 21:07:00,
2013-01-05 16:08:00,35.2,21.1,30.07,NNW,338,4.6,4.6,56,0.00,CLR,,0.00,WeatherDisplay:10.37,2013-01-05 21:08:00,
2013-01-05 16:09:00,35.2,21.1,30.07,NNE,22,3.5,3.5,56,0.00,CLR,,0.00,WeatherDisplay:10.37,2013-01-05 21:09:00,
2013-01-05 16:12:00,35.1,21.3,30.07,WSW,248,2.6,2.6,57,0.00,CLR,,0.00,WeatherDisplay:10.37,2013-01-05 21:12:00,
2013-01-05 16:13:00,35.1,21.3,30.07,NNE,22,2.3,2.3,57,0.00,CLR,,0.00,WeatherDisplay:10.37,2013-01-05 21:13:00,
2013-01-05 16:15:00,35.1,21.8,30.07,NNE,22,2.3,2.3,58,0.00,CLR,,0.00,WeatherDisplay:10.37,2013-01-05 21:15:00,
2013-01-05 16:17:00,35.1,21.3,30.07,North,0,2.3,2.3,57,0.00,CLR,,0.00,WeatherDisplay:10.37,2013-01-05 21:17:00,
2013-01-05 16:18:00,34.9,21.6,30.07,NNE,22,2.3,0.0,58,0.00,CLR,,0.00,WeatherDisplay:10.37,2013-01-05 21:18:00,
2013-01-05 16:20:00,34.9,21.6,30.07,WNW,292,2.3,2.3,58,0.00,CLR,,0.00,WeatherDisplay:10.37,2013-01-05 21:20:00,
2013-01-05 16:22:00,34.9,21.6,30.07,NW,315,3.5,3.5,58,0.00,CLR,,0.00,WeatherDisplay:10.37,2013-01-05 21:22:00,
2013-01-05 16:23:00,34.9,21.6,30.07,NNW,338,3.5,3.5,58,0.00,CLR,,0.00,WeatherDisplay:10.37,2013-01-05 21:23:00,
2013-01-05 16:25:00,34.7,21.4,30.07,NNE,22,3.5,3.5,58,0.00,CLR,,0.00,WeatherDisplay:10.37,2013-01-05 21:25:00,
2013-01-05 16:27:00,34.7,21.8,30.04,WNW,292,5.8,5.8,59,0.00,CLR,,0.00,WeatherDisplay:10.37,2013-01-05 21:27:00,
2013-01-05 16:28:00,34.5,21.7,30.04,NNE,22,2.3,2.3,59,0.00,CLR,,0.00,WeatherDisplay:10.37,2013-01-05 21:28:00,
2013-01-05 16:30:00,34.5,22.1,30.04,North,0,2.4,2.6,60,0.00,CLR,,0.00,WeatherDisplay:10.37,2013-01-05 21:30:00,
2013-01-05 16:32:00,34.5,22.1,30.04,North,0,3.5,3.5,60,0.00,CLR,,0.00,WeatherDisplay:10.37,2013-01-05 21:32:00,
2013-01-05 16:33:00,34.5,22.1,30.04,North,0,3.5,3.5,60,0.00,CLR,,0.00,WeatherDisplay:10.37,2013-01-05 21:33:00,
2013-01-05 16:35:00,34.5,22.4,30.04,WNW,292,3.5,3.5,61,0.00,CLR,,0.00,WeatherDisplay:10.37,2013-01-05 21:35:00,
2013-01-05 16:37:00,34.5,22.8,30.04,NNW,338,4.6,4.6,62,0.00,CLR,,0.00,WeatherDisplay:10.37,2013-01-05 21:37:00,
2013-01-05 16:38:00,34.5,22.8,30.04,NNW,338,6.4,6.4,62,0.00,CLR,,0.00,WeatherDisplay:10.37,2013-01-05 21:38:00,
2013-01-05 16:39:00,34.5,22.8,30.04,North,0,6.9,6.9,62,0.00,CLR,,0.00,WeatherDisplay:10.37,2013-01-05 21:39:00,
2013-01-05 16:40:00,34.5,22.8,30.04,NW,315,3.5,3.5,62,0.00,CLR,,0.00,WeatherDisplay:10.37,2013-01-05 21:40:00,
2013-01-05 16:42:00,34.3,22.7,30.01,WSW,248,3.5,3.5,62,0.00,CLR,,0.00,WeatherDisplay:10.37,2013-01-05 21:42:00,
2013-01-05 16:44:00,34.3,23.0,30.01,North,0,3.6,3.6,63,0.00,CLR,,0.00,WeatherDisplay:10.37,2013-01-05 21:44:00,
2013-01-05 16:45:00,34.3,23.0,30.01,West,270,3.5,3.5,63,0.00,CLR,,0.00,WeatherDisplay:10.37,2013-01-05 21:45:00,
2013-01-05 16:48:00,34.3,23.0,30.01,NNW,338,2.9,2.9,63,0.00,CLR,,0.00,WeatherDisplay:10.37,2013-01-05 21:48:00,
2013-01-05 16:49:00,34.3,23.0,30.01,NNE,22,2.3,2.3,63,0.00,CLR,,0.00,WeatherDisplay:10.37,2013-01-05 21:49:00,
2013-01-05 16:50:00,34.3,23.4,30.01,NNW,338,3.5,3.5,64,0.00,CLR,,0.00,WeatherDisplay:10.37,2013-01-05 21:50:00,
2013-01-05 16:53:00,34.3,23.4,30.01,WNW,292,3.5,3.5,64,0.00,CLR,,0.00,WeatherDisplay:10.37,2013-01-05 21:53:00,
2013-01-05 16:54:00,34.3,23.4,30.01,North,0,3.5,3.5,64,0.00,CLR,,0.00,WeatherDisplay:10.37,2013-01-05 21:54:00,
2013-01-05 16:56:00,34.2,23.2,30.01,NNE,22,1.1,0.0,64,0.00,CLR,,0.00,WeatherDisplay:10.37,2013-01-05 21:56:00,
2013-01-05 16:58:00,34.2,23.2,30.04,North,0,0.0,0.0,64,0.00,CLR,,0.00,WeatherDisplay:10.37,2013-01-05 21:58:00,
2013-01-05 16:59:00,34.2,23.2,30.04,WNW,292,0.0,0.0,64,0.00,CLR,,0.00,WeatherDisplay:10.37,2013-01-05 21:59:00,
2013-01-05 17:01:00,34.2,23.2,30.04,NW,315,3.5,3.5,64,0.00,CLR,,0.00,WeatherDisplay:10.37,2013-01-05 22:01:00,
2013-01-05 17:03:00,34.2,23.2,30.04,WNW,292,2.3,2.3,64,0.00,CLR,,0.00,WeatherDisplay:10.37,2013-01-05 22:03:00,
2013-01-05 17:04:00,34.0,23.1,30.04,NNW,338,2.4,2.4,64,0.00,CLR,,0.00,WeatherDisplay:10.37,2013-01-05 22:04:00,
2013-01-05 17:06:00,34.0,23.1,30.04,NE,45,2.3,2.3,64,0.00,CLR,,0.00,WeatherDisplay:10.37,2013-01-05 22:06:00,
2013-01-05 17:08:00,34.0,23.4,30.04,NNW,338,2.3,2.3,65,0.00,CLR,,0.00,WeatherDisplay:10.37,2013-01-05 22:08:00,
2013-01-05 17:09:00,34.0,23.4,30.04,NW,315,1.1,1.1,65,0.00,CLR,,0.00,WeatherDisplay:10.37,2013-01-05 22:09:00,
2013-01-05 17:11:00,34.0,23.1,30.04,NNE,22,1.1,0.0,64,0.00,CLR,,0.00,WeatherDisplay:10.37,2013-01-05 22:11:00,
2013-01-05 17:13:00,34.0,23.4,30.04,West,270,2.4,2.4,65,0.00,CLR,,0.00,WeatherDisplay:10.37,2013-01-05 22:13:00,
2013-01-05 17:14:00,34.0,23.4,30.04,NNW,338,2.3,2.3,65,0.00,CLR,,0.00,WeatherDisplay:10.37,2013-01-05 22:14:00,
2013-01-05 17:16:00,33.8,22.9,30.04,NW,315,1.1,1.1,64,0.00,CLR,,0.00,WeatherDisplay:10.37,2013-01-05 22:16:00,
2013-01-05 17:18:00,33.8,22.9,30.04,NE,45,0.0,0.0,64,0.00,CLR,,0.00,WeatherDisplay:10.37,2013-01-05 22:18:00,
2013-01-05 17:19:00,33.8,22.9,30.04,NNW,338,1.6,0.0,64,0.00,CLR,,0.00,WeatherDisplay:10.37,2013-01-05 22:19:00,
2013-01-05 17:20:00,33.8,22.9,30.04,WNW,292,2.3,2.3,64,0.00,CLR,,0.00,WeatherDisplay:10.37,2013-01-05 22:20:00,
2013-01-05 17:22:00,33.8,23.3,30.04,NNW,338,2.4,2.4,65,0.00,CLR,,0.00,WeatherDisplay:10.37,2013-01-05 22:22:00,
2013-01-05 17:23:00,33.8,23.3,30.04,NNW,338,3.5,3.5,65,0.00,CLR,,0.00,WeatherDisplay:10.37,2013-01-05 22:23:00,
2013-01-05 17:25:00,34.0,23.1,30.04,NNW,338,3.3,3.3,64,0.00,CLR,,0.00,WeatherDisplay:10.37,2013-01-05 22:25:00,
2013-01-05 17:27:00,34.0,23.1,30.04,NW,315,3.3,3.3,64,0.00,CLR,,0.00,WeatherDisplay:10.37,2013-01-05 22:27:00,
2013-01-05 17:28:00,34.0,23.1,30.04,WNW,292,3.5,3.5,64,0.00,CLR,,0.00,WeatherDisplay:10.37,2013-01-05 22:28:00,
2013-01-05 17:30:00,34.0,23.1,30.04,WNW,292,3.5,3.5,64,0.00,CLR,,0.00,WeatherDisplay:10.37,2013-01-05 22:30:00,
2013-01-05 17:32:00,34.0,23.1,30.04,NNW,338,3.5,3.5,64,0.00,CLR,,0.00,WeatherDisplay:10.37,2013-01-05 22:32:00,
2013-01-05 17:33:00,34.0,23.1,30.04,NNW,338,2.3,2.3,64,0.00,CLR,,0.00,WeatherDisplay:10.37,2013-01-05 22:33:00,
2013-01-05 17:35:00,34.0,23.1,30.04,NNE,22,3.5,3.5,64,0.00,CLR,,0.00,WeatherDisplay:10.37,2013-01-05 22:35:00,
2013-01-05 17:37:00,34.0,23.1,30.04,North,0,1.1,0.0,64,0.00,CLR,,0.00,WeatherDisplay:10.37,2013-01-05 22:37:00,
2013-01-05 17:38:00,33.8,22.9,30.04,North,0,1.1,0.0,64,0.00,CLR,,0.00,WeatherDisplay:10.37,2013-01-05 22:38:00,
2013-01-05 17:40:00,33.8,22.9,30.04,NNW,338,2.3,2.3,64,0.00,CLR,,0.00,WeatherDisplay:10.37,2013-01-05 22:40:00,
2013-01-05 17:41:00,33.8,22.9,30.04,North,0,1.1,0.0,64,0.00,CLR,,0.00,WeatherDisplay:10.37,2013-01-05 22:41:00,
2013-01-05 17:42:00,33.8,22.9,30.04,NNW,338,1.1,0.0,64,0.00,CLR,,0.00,WeatherDisplay:10.37,2013-01-05 22:42:00,
2013-01-05 17:44:00,33.8,22.9,30.04,NNE,22,0.0,0.0,64,0.00,CLR,,0.00,WeatherDisplay:10.37,2013-01-05 22:44:00,
2013-01-05 17:45:00,33.8,22.9,30.04,NNW,338,1.4,0.0,64,0.00,CLR,,0.00,WeatherDisplay:10.37,2013-01-05 22:45:00,
2013-01-05 17:46:00,33.8,23.3,30.04,NW,315,2.3,2.3,65,0.00,CLR,,0.00,WeatherDisplay:10.37,2013-01-05 22:46:00,
2013-01-05 17:48:00,33.8,23.3,30.04,North,0,2.3,2.3,65,0.00,CLR,,0.00,WeatherDisplay:10.37,2013-01-05 22:48:00,
2013-01-05 17:49:00,33.8,23.3,30.04,NNW,338,2.4,2.4,65,0.00,CLR,,0.00,WeatherDisplay:10.37,2013-01-05 22:49:00,
2013-01-05 17:50:00,33.8,23.3,30.04,NNE,22,2.3,2.4,65,0.00,CLR,,0.00,WeatherDisplay:10.37,2013-01-05 22:50:00,
2013-01-05 17:51:00,33.8,23.6,30.04,SSE,158,2.3,0.0,66,0.00,CLR,,0.00,WeatherDisplay:10.37,2013-01-05 22:51:00,
2013-01-05 17:53:00,33.8,23.3,30.04,WNW,292,2.9,2.9,65,0.00,CLR,,0.00,WeatherDisplay:10.37,2013-01-05 22:53:00,
2013-01-05 17:54:00,33.8,23.3,30.04,NNW,338,2.3,2.3,65,0.00,CLR,,0.00,WeatherDisplay:10.37,2013-01-05 22:54:00,
2013-01-05 17:55:00,33.8,23.3,30.04,West,270,3.5,3.5,65,0.00,CLR,,0.00,WeatherDisplay:10.37,2013-01-05 22:55:00,
2013-01-05 17:56:00,33.8,23.6,30.04,WNW,292,3.5,3.5,66,0.00,CLR,,0.00,WeatherDisplay:10.37,2013-01-05 22:56:00,
2013-01-05 17:58:00,33.8,23.3,30.04,WNW,292,3.5,3.5,65,0.00,CLR,,0.00,WeatherDisplay:10.37,2013-01-05 22:58:00,
2013-01-05 17:59:00,33.8,23.3,30.04,WSW,248,1.4,1.4,65,0.00,CLR,,0.00,WeatherDisplay:10.37,2013-01-05 22:59:00,
2013-01-05 18:00:00,33.8,23.3,30.04,NW,315,2.3,2.3,65,0.00,CLR,,0.00,WeatherDisplay:10.37,2013-01-05 23:00:00,
2013-01-05 18:01:00,33.8,23.3,30.04,NNE,22,2.3,2.3,65,0.00,CLR,,0.00,WeatherDisplay:10.37,2013-01-05 23:01:00,
2013-01-05 18:03:00,33.6,23.5,30.04,NE,45,0.0,0.0,66,0.00,CLR,,0.00,WeatherDisplay:10.37,2013-01-05 23:03:00,
2013-01-05 18:05:00,33.6,23.5,30.04,WNW,292,3.8,3.8,66,0.00,CLR,,0.00,WeatherDisplay:10.37,2013-01-05 23:05:00,
2013-01-05 18:06:00,33.6,23.5,30.04,WNW,292,3.5,3.5,66,0.00,CLR,,0.00,WeatherDisplay:10.37,2013-01-05 23:06:00,
2013-01-05 18:09:00,33.6,23.5,30.04,NE,45,0.0,0.0,66,0.00,CLR,,0.00,WeatherDisplay:10.37,2013-01-05 23:09:00,
2013-01-05 18:10:00,33.6,23.5,30.04,NE,45,0.0,0.0,66,0.00,CLR,,0.00,WeatherDisplay:10.37,2013-01-05 23:10:00,
2013-01-05 18:11:00,33.4,23.3,30.04,NNE,22,0.0,0.0,66,0.00,CLR,,0.00,WeatherDisplay:10.37,2013-01-05 23:11:00,
2013-01-05 18:14:00,33.4,23.3,30.04,NNW,338,1.1,0.0,66,0.00,CLR,,0.00,WeatherDisplay:10.37,2013-01-05 23:14:00,
2013-01-05 18:15:00,33.4,23.3,30.04,NNW,338,1.1,1.1,66,0.00,CLR,,0.00,WeatherDisplay:10.37,2013-01-05 23:15:00,
2013-01-05 18:16:00,33.4,23.3,30.04,NE,45,1.1,0.0,66,0.00,CLR,,0.00,WeatherDisplay:10.37,2013-01-05 23:16:00,
2013-01-05 18:19:00,33.4,23.3,30.04,NNW,338,0.0,0.0,66,0.00,CLR,,0.00,WeatherDisplay:10.37,2013-01-05 23:19:00,
2013-01-05 18:20:00,33.4,23.3,30.04,North,0,0.0,0.0,66,0.00,CLR,,0.00,WeatherDisplay:10.37,2013-01-05 23:20:00,
2013-01-05 18:21:00,33.4,23.3,30.04,North,0,0.0,0.0,66,0.00,CLR,,0.00,WeatherDisplay:10.37,2013-01-05 23:21:00,
2013-01-05 18:24:00,33.4,23.7,30.04,West,270,4.6,4.6,67,0.00,CLR,,0.00,WeatherDisplay:10.37,2013-01-05 23:24:00,
2013-01-05 18:25:00,33.4,23.7,30.04,NNW,338,4.6,4.6,67,0.00,CLR,,0.00,WeatherDisplay:10.37,2013-01-05 23:25:00,
2013-01-05 18:27:00,33.4,23.7,30.01,NW,315,2.3,2.3,67,0.00,CLR,,0.00,WeatherDisplay:10.37,2013-01-05 23:27:00,
2013-01-05 18:29:00,33.6,23.8,30.01,NNW,338,2.0,2.0,67,0.00,CLR,,0.00,WeatherDisplay:10.37,2013-01-05 23:29:00,
2013-01-05 18:30:00,33.4,23.7,30.01,WNW,292,2.6,2.6,67,0.00,CLR,,0.00,WeatherDisplay:10.37,2013-01-05 23:30:00,
2013-01-05 18:32:00,33.6,23.8,30.01,West,270,3.5,3.5,67,0.00,CLR,,0.00,WeatherDisplay:10.37,2013-01-05 23:32:00,
2013-01-05 18:34:00,33.4,23.3,30.01,WSW,248,4.6,4.6,66,0.00,CLR,,0.00,WeatherDisplay:10.37,2013-01-05 23:34:00,
2013-01-05 18:35:00,33.4,23.3,30.01,NW,315,1.6,1.6,66,0.00,CLR,,0.00,WeatherDisplay:10.37,2013-01-05 23:35:00,
2013-01-05 18:37:00,33.4,23.3,30.01,ENE,68,1.1,0.0,66,0.00,CLR,,0.00,WeatherDisplay:10.37,2013-01-05 23:37:00,
2013-01-05 18:39:00,33.3,23.1,30.01,NNW,338,2.3,2.3,66,0.00,CLR,,0.00,WeatherDisplay:10.37,2013-01-05 23:39:00,
2013-01-05 18:40:00,33.3,23.1,30.01,NNW,338,2.0,2.0,66,0.00,CLR,,0.00,WeatherDisplay:10.37,2013-01-05 23:40:00,
2013-01-05 18:42:00,33.3,23.1,30.01,WNW,292,2.3,2.3,66,0.00,CLR,,0.00,WeatherDisplay:10.37,2013-01-05 23:42:00,
2013-01-05 18:43:00,33.3,23.1,30.01,NNW,338,1.1,1.1,66,0.00,CLR,,0.00,WeatherDisplay:10.37,2013-01-05 23:43:00,
2013-01-05 18:44:00,33.3,23.1,30.01,SW,225,1.6,1.6,66,0.00,CLR,,0.00,WeatherDisplay:10.37,2013-01-05 23:44:00,
2013-01-05 18:45:00,33.3,23.1,30.01,NW,315,3.5,3.5,66,0.00,CLR,,0.00,WeatherDisplay:10.37,2013-01-05 23:45:00,
2013-01-05 18:47:00,33.3,23.1,30.01,NW,315,0.0,0.0,66,0.00,CLR,,0.00,WeatherDisplay:10.37,2013-01-05 23:47:00,
2013-01-05 18:48:00,33.3,23.1,30.01,NW,315,0.0,0.0,66,0.00,CLR,,0.00,WeatherDisplay:10.37,2013-01-05 23:48:00,
2013-01-05 18:50:00,33.1,22.9,30.01,NW,315,0.0,0.0,66,0.00,CLR,,0.00,WeatherDisplay:10.37,2013-01-05 23:50:00,
2013-01-05 18:52:00,33.1,22.9,30.01,NW,315,1.6,0.0,66,0.00,CLR,,0.00,WeatherDisplay:10.37,2013-01-05 23:52:00,
2013-01-05 18:53:00,32.9,22.8,30.01,NNW,338,1.1,1.1,66,0.00,CLR,,0.00,WeatherDisplay:10.37,2013-01-05 23:53:00,
2013-01-05 18:55:00,32.9,22.8,30.01,NNW,338,0.0,0.0,66,0.00,CLR,,0.00,WeatherDisplay:10.37,2013-01-05 23:55:00,
2013-01-05 18:57:00,32.7,22.6,30.04,WNW,292,1.1,0.0,66,0.00,CLR,,0.00,WeatherDisplay:10.37,2013-01-05 23:57:00,
2013-01-05 18:58:00,32.7,23.0,30.04,WNW,292,0.0,0.0,67,0.00,CLR,,0.00,WeatherDisplay:10.37,2013-01-05 23:58:00,
2013-01-05 19:00:00,32.7,23.0,30.04,NE,45,0.0,0.0,67,0.00,CLR,,0.00,WeatherDisplay:10.37,2013-01-06 00:00:00,
2013-01-05 19:02:00,32.5,22.4,30.04,NNW,338,0.0,0.0,66,0.00,CLR,,0.00,WeatherDisplay:10.37,2013-01-06 00:02:00,
2013-01-05 19:04:00,32.5,22.4,30.04,NNE,22,0.0,0.0,66,0.00,CLR,,0.00,WeatherDisplay:10.37,2013-01-06 00:04:00,
2013-01-05 19:05:00,32.5,22.8,30.04,NNW,338,0.0,0.0,67,0.00,CLR,,0.00,WeatherDisplay:10.37,2013-01-06 00:05:00,
2013-01-05 19:07:00,32.5,22.8,30.04,West,270,0.0,0.0,67,0.00,CLR,,0.00,WeatherDisplay:10.37,2013-01-06 00:07:00,
2013-01-05 19:09:00,32.5,22.8,30.04,West,270,0.0,0.0,67,0.00,CLR,,0.00,WeatherDisplay:10.37,2013-01-06 00:09:00,
2013-01-05 19:10:00,32.5,23.1,30.04,SSW,202,0.0,0.0,68,0.00,CLR,,0.00,WeatherDisplay:10.37,2013-01-06 00:10:00,
2013-01-05 19:13:00,32.5,23.1,30.01,SSW,202,0.0,0.0,68,0.00,CLR,,0.00,WeatherDisplay:10.37,2013-01-06 00:13:00,
2013-01-05 19:14:00,32.5,23.1,30.01,SSW,202,0.0,0.0,68,0.00,CLR,,0.00,WeatherDisplay:10.37,2013-01-06 00:14:00,
2013-01-05 19:15:00,32.4,23.0,30.01,WNW,292,0.0,0.0,68,0.00,CLR,,0.00,WeatherDisplay:10.37,2013-01-06 00:15:00,
2013-01-05 19:16:00,32.4,23.0,30.01,WNW,292,0.0,0.0,68,0.00,CLR,,0.00,WeatherDisplay:10.37,2013-01-06 00:16:00,
2013-01-05 19:18:00,32.2,22.8,30.01,NW,315,0.0,0.0,68,0.00,CLR,,0.00,WeatherDisplay:10.37,2013-01-06 00:18:00,
2013-01-05 19:19:00,32.2,22.8,30.01,NW,315,0.0,0.0,68,0.00,CLR,,0.00,WeatherDisplay:10.37,2013-01-06 00:19:00,
2013-01-05 19:20:00,32.2,22.8,30.01,NW,315,0.0,0.0,68,0.00,CLR,,0.00,WeatherDisplay:10.37,2013-01-06 00:20:00,
2013-01-05 19:21:00,32.0,22.6,30.01,NW,315,0.0,0.0,68,0.00,CLR,,0.00,WeatherDisplay:10.37,2013-01-06 00:21:00,
2013-01-05 19:23:00,32.0,22.6,30.01,NW,315,0.0,0.0,68,0.00,CLR,,0.00,WeatherDisplay:10.37,2013-01-06 00:23:00,
2013-01-05 19:24:00,32.0,22.6,30.01,West,270,0.0,0.0,68,0.00,CLR,,0.00,WeatherDisplay:10.37,2013-01-06 00:24:00,
2013-01-05 19:26:00,32.0,23.0,30.01,West,270,0.0,0.0,69,0.00,CLR,,0.00,WeatherDisplay:10.37,2013-01-06 00:26:00,
2013-01-05 19:28:00,32.0,23.0,30.01,WNW,292,0.0,0.0,69,0.00,CLR,,0.00,WeatherDisplay:10.37,2013-01-06 00:28:00,
2013-01-05 19:29:00,31.8,22.8,30.01,WNW,292,0.0,0.0,69,0.00,CLR,,0.00,WeatherDisplay:10.37,2013-01-06 00:29:00,
2013-01-05 19:31:00,31.8,22.8,30.01,WNW,292,0.0,0.0,69,0.00,CLR,,0.00,WeatherDisplay:10.37,2013-01-06 00:31:00,
2013-01-05 19:33:00,31.6,22.6,30.01,WNW,292,0.0,0.0,69,0.00,CLR,,0.00,WeatherDisplay:10.37,2013-01-06 00:33:00,
2013-01-05 19:34:00,31.6,22.6,30.01,WNW,292,0.0,0.0,69,0.00,CLR,,0.00,WeatherDisplay:10.37,2013-01-06 00:34:00,
2013-01-05 19:36:00,31.6,22.6,30.01,WNW,292,0.0,0.0,69,0.00,CLR,,0.00,WeatherDisplay:10.37,2013-01-06 00:36:00,
2013-01-05 19:38:00,31.6,22.6,30.01,West,270,0.0,0.0,69,0.00,CLR,,0.00,WeatherDisplay:10.37,2013-01-06 00:38:00,
2013-01-05 19:39:00,31.6,22.6,30.01,WNW,292,0.0,0.0,69,0.00,CLR,,0.00,WeatherDisplay:10.37,2013-01-06 00:39:00,
2013-01-05 19:41:00,31.6,23.0,30.01,West,270,2.3,2.3,70,0.00,CLR,,0.00,WeatherDisplay:10.37,2013-01-06 00:41:00,
2013-01-05 19:42:00,31.6,23.0,30.01,WNW,292,2.3,2.3,70,0.00,CLR,,0.00,WeatherDisplay:10.37,2013-01-06 00:42:00,
2013-01-05 19:44:00,31.6,23.3,30.01,WNW,292,3.5,3.5,71,0.00,CLR,,0.00,WeatherDisplay:10.37,2013-01-06 00:44:00,
2013-01-05 19:46:00,31.6,23.3,30.01,WNW,292,2.9,2.9,71,0.00,CLR,,0.00,WeatherDisplay:10.37,2013-01-06 00:46:00,
2013-01-05 19:47:00,31.6,23.6,30.01,WNW,292,3.5,3.5,72,0.00,CLR,,0.00,WeatherDisplay:10.37,2013-01-06 00:47:00,
2013-01-05 19:49:00,31.5,23.1,30.01,NNW,338,2.3,2.3,71,0.00,CLR,,0.00,WeatherDisplay:10.37,2013-01-06 00:49:00,
2013-01-05 19:52:00,31.5,23.1,30.01,West,270,2.3,2.3,71,0.00,CLR,,0.00,WeatherDisplay:10.37,2013-01-06 00:52:00,
2013-01-05 19:54:00,31.3,23.0,30.01,West,270,0.0,0.0,71,0.00,CLR,,0.00,WeatherDisplay:10.37,2013-01-06 00:54:00,
2013-01-05 19:55:00,31.3,23.0,30.01,WNW,292,0.0,0.0,71,0.00,CLR,,0.00,WeatherDisplay:10.37,2013-01-06 00:55:00,
2013-01-05 19:57:00,31.3,23.0,30.01,West,270,0.0,0.0,71,0.00,CLR,,0.00,WeatherDisplay:10.37,2013-01-06 00:57:00,
2013-01-05 19:59:00,31.1,22.8,30.01,WSW,248,0.0,0.0,71,0.00,CLR,,0.00,WeatherDisplay:10.37,2013-01-06 00:59:00,
2013-01-05 20:00:00,31.1,22.8,30.01,WSW,248,0.0,0.0,71,0.00,CLR,,0.00,WeatherDisplay:10.37,2013-01-06 01:00:00,
2013-01-05 20:02:00,31.1,22.8,30.01,WSW,248,0.0,0.0,71,0.00,CLR,,0.00,WeatherDisplay:10.37,2013-01-06 01:02:00,
2013-01-05 20:04:00,30.9,22.3,30.01,West,270,0.0,0.0,70,0.00,CLR,,0.00,WeatherDisplay:10.37,2013-01-06 01:04:00,
2013-01-05 20:05:00,30.9,22.3,30.01,West,270,0.0,0.0,70,0.00,CLR,,0.00,WeatherDisplay:10.37,2013-01-06 01:05:00,
2013-01-05 20:07:00,30.9,22.3,30.01,West,270,0.0,0.0,70,0.00,CLR,,0.00,WeatherDisplay:10.37,2013-01-06 01:07:00,
2013-01-05 20:10:00,30.9,22.6,30.01,West,270,0.0,0.0,71,0.00,CLR,,0.00,WeatherDisplay:10.37,2013-01-06 01:10:00,
2013-01-05 20:12:00,31.1,22.8,29.99,WNW,292,0.0,0.0,71,0.00,CLR,,0.00,WeatherDisplay:10.37,2013-01-06 01:12:00,
2013-01-05 20:15:00,31.1,22.8,29.99,WNW,292,2.6,2.6,71,0.00,CLR,,0.00,WeatherDisplay:10.37,2013-01-06 01:15:00,
2013-01-05 20:17:00,31.1,22.8,29.99,NW,315,3.5,3.5,71,0.00,CLR,,0.00,WeatherDisplay:10.37,2013-01-06 01:17:00,
2013-01-05 20:20:00,31.1,22.8,29.99,WSW,248,3.5,3.5,71,0.00,CLR,,0.00,WeatherDisplay:10.37,2013-01-06 01:20:00,
2013-01-05 20:22:00,31.1,22.8,29.99,WNW,292,2.3,2.3,71,0.00,CLR,,0.00,WeatherDisplay:10.37,2013-01-06 01:22:00,
2013-01-05 20:25:00,30.9,22.3,29.99,WNW,292,2.3,2.3,70,0.00,CLR,,0.00,WeatherDisplay:10.37,2013-01-06 01:25:00,
2013-01-05 20:27:00,31.1,22.8,29.99,WNW,292,4.6,4.6,71,0.00,CLR,,0.00,WeatherDisplay:10.37,2013-01-06 01:27:00,
2013-01-05 20:30:00,31.1,22.5,29.99,West,270,5.4,5.4,70,0.00,CLR,,0.00,WeatherDisplay:10.37,2013-01-06 01:30:00,
2013-01-05 20:32:00,30.9,22.3,29.99,WNW,292,2.3,2.3,70,0.00,CLR,,0.00,WeatherDisplay:10.37,2013-01-06 01:32:00,
2013-01-05 20:33:00,30.9,22.3,29.99,West,270,2.3,0.0,70,0.00,CLR,,0.00,WeatherDisplay:10.37,2013-01-06 01:33:00,
2013-01-05 20:35:00,30.9,22.3,29.99,WNW,292,0.0,0.0,70,0.00,CLR,,0.00,WeatherDisplay:10.37,2013-01-06 01:35:00,
2013-01-05 20:37:00,30.7,22.1,29.99,WNW,292,0.0,0.0,70,0.00,CLR,,0.00,WeatherDisplay:10.37,2013-01-06 01:37:00,
2013-01-05 20:38:00,30.7,22.1,29.99,West,270,0.0,0.0,70,0.00,CLR,,0.00,WeatherDisplay:10.37,2013-01-06 01:38:00,
2013-01-05 20:40:00,30.7,22.1,29.99,WSW,248,2.3,2.3,70,0.00,CLR,,0.00,WeatherDisplay:10.37,2013-01-06 01:40:00,
2013-01-05 20:42:00,30.6,21.9,29.99,NNW,338,1.1,0.0,70,0.00,CLR,,0.00,WeatherDisplay:10.37,2013-01-06 01:42:00,
2013-01-05 20:43:00,30.6,21.9,29.99,NNE,22,0.0,0.0,70,0.00,CLR,,0.00,WeatherDisplay:10.37,2013-01-06 01:43:00,
2013-01-05 20:45:00,30.7,22.1,29.99,WNW,292,4.6,4.6,70,0.00,CLR,,0.00,WeatherDisplay:10.37,2013-01-06 01:45:00,
2013-01-05 20:46:00,30.7,22.1,29.99,NW,315,4.6,4.6,70,0.00,CLR,,0.00,WeatherDisplay:10.37,2013-01-06 01:46:00,
2013-01-05 20:47:00,30.7,22.1,29.99,NW,315,2.3,2.3,70,0.00,CLR,,0.00,WeatherDisplay:10.37,2013-01-06 01:47:00,
2013-01-05 20:48:00,30.7,22.1,29.99,NNW,338,2.3,2.3,70,0.00,CLR,,0.00,WeatherDisplay:10.37,2013-01-06 01:48:00,
2013-01-05 20:51:00,30.6,21.9,29.99,NNW,338,0.0,0.0,70,0.00,CLR,,0.00,WeatherDisplay:10.37,2013-01-06 01:51:00,
2013-01-05 20:52:00,30.6,21.9,29.99,North,0,0.0,0.0,70,0.00,CLR,,0.00,WeatherDisplay:10.37,2013-01-06 01:52:00,
2013-01-05 20:53:00,30.6,21.9,29.99,NNW,338,0.0,0.0,70,0.00,CLR,,0.00,WeatherDisplay:10.37,2013-01-06 01:53:00,
2013-01-05 20:56:00,30.4,21.8,29.99,NNW,338,0.0,0.0,70,0.00,CLR,,0.00,WeatherDisplay:10.37,2013-01-06 01:56:00,
2013-01-05 20:57:00,30.4,21.8,30.01,NW,315,3.5,3.5,70,0.00,CLR,,0.00,WeatherDisplay:10.37,2013-01-06 01:57:00,
2013-01-05 20:58:00,30.4,21.8,30.01,WSW,248,3.5,3.5,70,0.00,CLR,,0.00,WeatherDisplay:10.37,2013-01-06 01:58:00,
2013-01-05 20:59:00,30.4,21.8,30.01,WNW,292,4.9,4.9,70,0.00,CLR,,0.00,WeatherDisplay:10.37,2013-01-06 01:59:00,
2013-01-05 21:01:00,30.4,21.8,30.01,West,270,5.8,5.8,70,0.00,CLR,,0.00,WeatherDisplay:10.37,2013-01-06 02:01:00,
2013-01-05 21:02:00,30.4,21.8,30.01,WNW,292,4.6,4.6,70,0.00,CLR,,0.00,WeatherDisplay:10.37,2013-01-06 02:02:00,
2013-01-05 21:03:00,30.4,21.8,30.01,West,270,5.9,5.9,70,0.00,CLR,,0.00,WeatherDisplay:10.37,2013-01-06 02:03:00,
2013-01-05 21:04:00,30.4,21.4,30.01,WNW,292,5.8,5.8,69,0.00,CLR,,0.00,WeatherDisplay:10.37,2013-01-06 02:04:00,
2013-01-05 21:06:00,30.4,21.4,30.01,ENE,68,2.3,2.3,69,0.00,CLR,,0.00,WeatherDisplay:10.37,2013-01-06 02:06:00,
2013-01-05 21:07:00,30.4,21.4,30.01,NW,315,2.3,2.3,69,0.00,CLR,,0.00,WeatherDisplay:10.37,2013-01-06 02:07:00,
2013-01-05 21:08:00,30.2,21.6,30.01,WNW,292,1.1,0.0,70,0.00,CLR,,0.00,WeatherDisplay:10.37,2013-01-06 02:08:00,
2013-01-05 21:09:00,30.2,21.6,30.01,NW,315,3.1,0.0,70,0.00,CLR,,0.00,WeatherDisplay:10.37,2013-01-06 02:09:00,
2013-01-05 21:11:00,30.2,21.6,30.01,NW,315,3.8,3.8,70,0.00,CLR,,0.00,WeatherDisplay:10.37,2013-01-06 02:11:00,
2013-01-05 21:12:00,30.4,21.4,30.01,WNW,292,5.8,5.8,69,0.00,CLR,,0.00,WeatherDisplay:10.37,2013-01-06 02:12:00,
2013-01-05 21:13:00,30.4,21.4,30.01,WNW,292,4.6,4.6,69,0.00,CLR,,0.00,WeatherDisplay:10.37,2013-01-06 02:13:00,
2013-01-05 21:14:00,30.4,21.4,30.01,NNW,338,4.9,4.9,69,0.00,CLR,,0.00,WeatherDisplay:10.37,2013-01-06 02:14:00,
2013-01-05 21:16:00,30.4,21.4,30.01,WNW,292,4.6,4.6,69,0.00,CLR,,0.00,WeatherDisplay:10.37,2013-01-06 02:16:00,
2013-01-05 21:17:00,30.4,21.4,30.01,NNW,338,4.3,4.3,69,0.00,CLR,,0.00,WeatherDisplay:10.37,2013-01-06 02:17:00,
2013-01-05 21:18:00,30.6,21.6,30.01,West,270,5.8,5.8,69,0.00,CLR,,0.00,WeatherDisplay:10.37,2013-01-06 02:18:00,
2013-01-05 21:19:00,30.6,21.2,30.01,WNW,292,5.8,5.8,68,0.00,CLR,,0.00,WeatherDisplay:10.37,2013-01-06 02:19:00,
2013-01-05 21:21:00,30.4,21.1,30.01,NNW,338,4.6,4.6,68,0.00,CLR,,0.00,WeatherDisplay:10.37,2013-01-06 02:21:00,
2013-01-05 21:22:00,30.6,21.2,30.01,WNW,292,3.5,3.5,68,0.00,CLR,,0.00,WeatherDisplay:10.37,2013-01-06 02:22:00,
2013-01-05 21:24:00,30.6,21.2,30.01,SSW,202,3.5,3.5,68,0.00,CLR,,0.00,WeatherDisplay:10.37,2013-01-06 02:24:00,
2013-01-05 21:28:00,30.6,21.2,30.01,WNW,292,4.6,4.6,68,0.00,CLR,,0.00,WeatherDisplay:10.37,2013-01-06 02:28:00,
2013-01-05 21:29:00,30.6,21.2,30.01,West,270,4.9,4.9,68,0.00,CLR,,0.00,WeatherDisplay:10.37,2013-01-06 02:29:00,
2013-01-05 21:33:00,30.7,21.1,30.01,West,270,7.6,7.6,67,0.00,CLR,,0.00,WeatherDisplay:10.37,2013-01-06 02:33:00,
2013-01-05 21:34:00,30.7,20.7,30.01,West,270,8.1,8.1,66,0.00,CLR,,0.00,WeatherDisplay:10.37,2013-01-06 02:34:00,
2013-01-05 21:35:00,30.9,20.9,30.01,WSW,248,6.9,6.9,66,0.00,CLR,,0.00,WeatherDisplay:10.37,2013-01-06 02:35:00,
2013-01-05 21:38:00,30.9,20.5,30.01,WNW,292,5.8,5.8,65,0.00,CLR,,0.00,WeatherDisplay:10.37,2013-01-06 02:38:00,
2013-01-05 21:39:00,30.9,20.5,30.01,WNW,292,4.6,4.6,65,0.00,CLR,,0.00,WeatherDisplay:10.37,2013-01-06 02:39:00,
2013-01-05 21:40:00,30.9,20.5,30.01,SW,225,4.6,4.6,65,0.00,CLR,,0.00,WeatherDisplay:10.37,2013-01-06 02:40:00,
2013-01-05 21:43:00,30.9,20.5,29.99,West,270,5.8,5.8,65,0.00,CLR,,0.00,WeatherDisplay:10.37,2013-01-06 02:43:00,
2013-01-05 21:44:00,30.9,20.5,29.99,WNW,292,5.8,5.8,65,0.00,CLR,,0.00,WeatherDisplay:10.37,2013-01-06 02:44:00,
2013-01-05 21:45:00,30.7,20.4,29.99,West,270,3.6,3.6,65,0.00,CLR,,0.00,WeatherDisplay:10.37,2013-01-06 02:45:00,
2013-01-05 21:48:00,30.9,20.5,29.99,West,270,4.6,4.6,65,0.00,CLR,,0.00,WeatherDisplay:10.37,2013-01-06 02:48:00,
2013-01-05 21:49:00,30.9,20.2,29.99,WNW,292,6.9,6.9,64,0.00,CLR,,0.00,WeatherDisplay:10.37,2013-01-06 02:49:00,
2013-01-05 21:50:00,30.9,20.2,29.99,NNW,338,6.9,6.9,64,0.00,CLR,,0.00,WeatherDisplay:10.37,2013-01-06 02:50:00,
2013-01-05 21:53:00,30.9,20.2,29.99,WNW,292,4.9,4.9,64,0.00,CLR,,0.00,WeatherDisplay:10.37,2013-01-06 02:53:00,
2013-01-05 21:54:00,30.9,20.2,29.99,WSW,248,6.9,6.9,64,0.00,CLR,,0.00,WeatherDisplay:10.37,2013-01-06 02:54:00,
2013-01-05 21:55:00,30.9,20.2,29.99,NW,315,5.8,5.8,64,0.00,CLR,,0.00,WeatherDisplay:10.37,2013-01-06 02:55:00,
2013-01-05 21:58:00,30.7,20.0,29.99,WSW,248,5.4,5.4,64,0.00,CLR,,0.00,WeatherDisplay:10.37,2013-01-06 02:58:00,
2013-01-05 21:59:00,30.9,20.2,29.99,West,270,5.8,5.8,64,0.00,CLR,,0.00,WeatherDisplay:10.37,2013-01-06 02:59:00,
2013-01-05 22:00:00,30.9,20.2,29.99,West,270,4.6,4.6,64,0.00,CLR,,0.00,WeatherDisplay:10.37,2013-01-06 03:00:00,
2013-01-05 22:03:00,30.9,20.2,29.99,WNW,292,5.8,5.8,64,0.00,CLR,,0.00,WeatherDisplay:10.37,2013-01-06 03:03:00,
2013-01-05 22:04:00,30.9,19.8,29.99,WNW,292,6.9,6.9,63,0.00,CLR,,0.00,WeatherDisplay:10.37,2013-01-06 03:04:00,
2013-01-05 22:05:00,30.9,20.2,29.99,WNW,292,6.9,6.9,64,0.00,CLR,,0.00,WeatherDisplay:10.37,2013-01-06 03:05:00,
2013-01-05 22:08:00,30.7,20.0,29.99,WSW,248,5.8,5.8,64,0.00,CLR,,0.00,WeatherDisplay:10.37,2013-01-06 03:08:00,
2013-01-05 22:10:00,30.7,20.0,29.99,West,270,5.8,5.8,64,0.00,CLR,,0.00,WeatherDisplay:10.37,2013-01-06 03:10:00,
2013-01-05 22:11:00,30.7,20.0,29.95,West,270,5.8,5.8,64,0.00,CLR,,0.00,WeatherDisplay:10.37,2013-01-06 03:11:00,
2013-01-05 22:13:00,30.7,20.0,29.95,WNW,292,4.6,4.6,64,0.00,CLR,,0.00,WeatherDisplay:10.37,2013-01-06 03:13:00,
2013-01-05 22:15:00,30.7,20.0,29.95,WNW,292,5.8,5.8,64,0.00,CLR,,0.00,WeatherDisplay:10.37,2013-01-06 03:15:00,
2013-01-05 22:16:00,30.7,20.0,29.95,WNW,292,5.8,5.8,64,0.00,CLR,,0.00,WeatherDisplay:10.37,2013-01-06 03:16:00,
2013-01-05 22:18:00,30.7,20.0,29.95,WSW,248,5.8,5.8,64,0.00,CLR,,0.00,WeatherDisplay:10.37,2013-01-06 03:18:00,
2013-01-05 22:21:00,30.7,20.0,29.95,NW,315,5.8,5.8,64,0.00,CLR,,0.00,WeatherDisplay:10.37,2013-01-06 03:21:00,
2013-01-05 22:23:00,30.7,19.6,29.95,WNW,292,6.9,6.9,63,0.00,CLR,,0.00,WeatherDisplay:10.37,2013-01-06 03:23:00,
2013-01-05 22:26:00,30.7,19.6,29.95,West,270,4.6,4.6,63,0.00,CLR,,0.00,WeatherDisplay:10.37,2013-01-06 03:26:00,
2013-01-05 22:28:00,30.7,19.6,29.95,North,0,6.9,6.9,63,0.00,CLR,,0.00,WeatherDisplay:10.37,2013-01-06 03:28:00,
2013-01-05 22:31:00,30.7,19.6,29.95,WSW,248,6.9,6.9,63,0.00,CLR,,0.00,WeatherDisplay:10.37,2013-01-06 03:31:00,
2013-01-05 22:34:00,30.7,19.6,29.95,West,270,8.1,8.1,63,0.00,CLR,,0.00,WeatherDisplay:10.37,2013-01-06 03:34:00,
2013-01-05 22:36:00,30.7,19.2,29.95,SSW,202,5.8,5.8,62,0.00,CLR,,0.00,WeatherDisplay:10.37,2013-01-06 03:36:00,
2013-01-05 22:39:00,30.7,19.6,29.95,West,270,5.8,5.8,63,0.00,CLR,,0.00,WeatherDisplay:10.37,2013-01-06 03:39:00,
2013-01-05 22:41:00,30.7,19.6,29.95,WSW,248,5.8,5.8,63,0.00,CLR,,0.00,WeatherDisplay:10.37,2013-01-06 03:41:00,
2013-01-05 22:44:00,30.7,19.6,29.95,WNW,292,3.8,3.8,63,0.00,CLR,,0.00,WeatherDisplay:10.37,2013-01-06 03:44:00,
2013-01-05 22:46:00,30.7,20.0,29.95,WNW,292,5.6,5.6,64,0.00,CLR,,0.00,WeatherDisplay:10.37,2013-01-06 03:46:00,
2013-01-05 22:47:00,30.7,19.6,29.95,NNW,338,5.8,5.8,63,0.00,CLR,,0.00,WeatherDisplay:10.37,2013-01-06 03:47:00,
2013-01-05 22:49:00,30.7,20.0,29.95,West,270,6.9,6.9,64,0.00,CLR,,0.00,WeatherDisplay:10.37,2013-01-06 03:49:00,
2013-01-05 22:51:00,30.7,20.0,29.95,WNW,292,9.4,9.4,64,0.00,CLR,,0.00,WeatherDisplay:10.37,2013-01-06 03:51:00,
2013-01-05 22:52:00,30.7,20.0,29.95,NNW,338,9.2,9.2,64,0.00,CLR,,0.00,WeatherDisplay:10.37,2013-01-06 03:52:00,
2013-01-05 22:54:00,30.7,19.6,29.95,WNW,292,8.1,8.1,63,0.00,CLR,,0.00,WeatherDisplay:10.37,2013-01-06 03:54:00,
2013-01-05 22:56:00,30.7,20.0,29.99,WNW,292,10.5,10.5,64,0.00,CLR,,0.00,WeatherDisplay:10.37,2013-01-06 03:56:00,
2013-01-05 22:57:00,30.9,19.8,29.99,NNW,338,10.5,10.5,63,0.00,CLR,,0.00,WeatherDisplay:10.37,2013-01-06 03:57:00,
2013-01-05 22:59:00,30.7,20.0,29.99,WNW,292,8.1,8.1,64,0.00,CLR,,0.00,WeatherDisplay:10.37,2013-01-06 03:59:00,
2013-01-05 23:01:00,30.7,20.0,29.99,WNW,292,7.4,7.4,64,0.00,CLR,,0.00,WeatherDisplay:10.37,2013-01-06 04:01:00,
2013-01-05 23:02:00,30.7,20.0,29.99,WNW,292,8.1,8.1,64,0.00,CLR,,0.00,WeatherDisplay:10.37,2013-01-06 04:02:00,
2013-01-05 23:04:00,30.7,20.0,29.99,WNW,292,6.9,6.9,64,0.00,CLR,,0.00,WeatherDisplay:10.37,2013-01-06 04:04:00,
2013-01-05 23:12:00,30.7,20.4,29.95,WNW,292,8.1,8.1,65,0.00,CLR,,0.00,WeatherDisplay:10.37,2013-01-06 04:12:00,
2013-01-05 23:23:00,30.7,20.0,29.95,WNW,292,4.6,4.6,64,0.00,CLR,,0.00,WeatherDisplay:10.37,2013-01-06 04:23:00,
2013-01-05 23:28:00,30.7,20.0,29.95,WSW,248,5.8,5.8,64,0.00,CLR,,0.00,WeatherDisplay:10.37,2013-01-06 04:28:00,
2013-01-05 23:33:00,30.9,20.2,29.95,NNW,338,5.8,5.8,64,0.00,CLR,,0.00,WeatherDisplay:10.37,2013-01-06 04:33:00,
2013-01-05 23:38:00,30.9,20.2,29.95,West,270,4.3,4.3,64,0.00,CLR,,0.00,WeatherDisplay:10.37,2013-01-06 04:38:00,
2013-01-05 23:43:00,30.9,20.5,29.93,WNW,292,6.9,6.9,65,0.00,CLR,,0.00,WeatherDisplay:10.37,2013-01-06 04:43:00,
2013-01-05 23:44:00,30.9,20.5,29.93,West,270,5.8,5.8,65,0.00,CLR,,0.00,WeatherDisplay:10.37,2013-01-06 04:44:00,
2013-01-05 23:48:00,30.9,20.5,29.93,SW,225,5.8,5.8,65,0.00,CLR,,0.00,WeatherDisplay:10.37,2013-01-06 04:48:00,
2013-01-05 23:49:00,30.9,20.5,29.93,WSW,248,5.8,5.8,65,0.00,CLR,,0.00,WeatherDisplay:10.37,2013-01-06 04:49:00,
2013-01-05 23:53:00,30.9,20.9,29.93,WSW,248,4.6,4.7,66,0.00,CLR,,0.00,WeatherDisplay:10.37,2013-01-06 04:53:00,
2013-01-05 23:54:00,30.9,20.9,29.93,WNW,292,5.8,5.8,66,0.00,CLR,,0.00,WeatherDisplay:10.37,2013-01-06 04:54:00,
2013-01-05 23:58:00,30.9,20.9,29.93,WNW,292,6.9,6.9,66,0.00,CLR,,0.00,WeatherDisplay:10.37,2013-01-06 04:58:00,
2013-01-05 23:59:00,30.9,20.9,29.93,WNW,292,4.6,4.6,66,0.00,CLR,,0.00,WeatherDisplay:10.37,2013-01-06 04:59:00,